Time,TemperatureF,DewpointF,PressureIn,WindDirection,WindDirectionDegrees,WindSpeedMPH,WindSpeedGustMPH,Humidity,HourlyPrecipIn,Conditions,Clouds,dailyrainin,SolarRadiationWatts/m^2,SoftwareType,DateUTC
2013-10-04 00:00:00,62.5,59.2,29.65,NNE,23,0.0,6.0,89,0.00,,,0.00,0,WeatherCatV1.21B27,2013-10-04 05:00:00,
2013-10-04 00:01:00,62.5,59.2,29.64,NNE,23,0.0,2.0,89,0.00,,,0.00,0,WeatherCatV1.21B27,2013-10-04 05:01:00,
2013-10-04 00:02:00,62.5,59.2,29.64,NE,49,3.0,5.0,89,0.00,,,0.00,0,WeatherCatV1.21B27,2013-10-04 05:02:00,
2013-10-04 00:03:00,62.5,59.2,29.64,NE,49,1.0,5.0,89,0.00,,,0.00,0,WeatherCatV1.21B27,2013-10-04 05:03:00,
2013-10-04 00:06:00,62.6,59.3,29.64,NNE,30,2.0,7.0,89,0.00,,,0.00,0,WeatherCatV1.21B27,2013-10-04 05:06:00,
2013-10-04 00:07:00,62.6,59.3,29.64,ENE,72,1.0,2.0,89,0.00,,,0.00,0,WeatherCatV1.21B27,2013-10-04 05:07:00,
2013-10-04 00:08:00,62.6,59.3,29.64,ENE,72,0.0,2.0,89,0.00,,,0.00,0,WeatherCatV1.21B27,2013-10-04 05:08:00,
2013-10-04 00:09:00,62.6,59.3,29.64,ENE,72,0.0,1.0,89,0.00,,,0.00,0,WeatherCatV1.21B27,2013-10-04 05:09:00,
2013-10-04 00:11:00,62.6,59.0,29.64,ENE,71,1.0,3.0,88,0.00,,,0.00,0,WeatherCatV1.21B27,2013-10-04 05:11:00,
2013-10-04 00:12:00,62.5,58.9,29.64,NE,46,3.0,5.0,88,0.00,,,0.00,0,WeatherCatV1.21B27,2013-10-04 05:12:00,
2013-10-04 00:13:00,62.5,58.9,29.64,NE,46,0.0,5.0,88,0.00,,,0.00,0,WeatherCatV1.21B27,2013-10-04 05:13:00,
2013-10-04 00:14:00,62.5,58.9,29.64,NE,46,1.0,3.0,88,0.00,,,0.00,0,WeatherCatV1.21B27,2013-10-04 05:14:00,
2013-10-04 00:15:00,62.5,58.9,29.64,NE,46,2.0,3.0,88,0.00,,,0.00,0,WeatherCatV1.21B27,2013-10-04 05:15:00,
2013-10-04 00:16:00,62.5,59.2,29.64,NE,46,2.0,2.0,89,0.00,,,0.00,0,WeatherCatV1.21B27,2013-10-04 05:16:00,
2013-10-04 00:18:00,62.5,59.2,29.64,NE,46,0.0,2.0,89,0.00,,,0.00,0,WeatherCatV1.21B27,2013-10-04 05:18:00,
2013-10-04 00:20:00,62.5,59.2,29.64,NE,46,0.0,1.0,89,0.00,,,0.00,0,WeatherCatV1.21B27,2013-10-04 05:20:00,
2013-10-04 00:21:00,62.5,59.2,29.64,NE,44,3.0,5.0,89,0.00,,,0.00,0,WeatherCatV1.21B27,2013-10-04 05:21:00,
2013-10-04 00:22:00,62.5,59.2,29.64,NE,44,1.0,5.0,89,0.00,,,0.00,0,WeatherCatV1.21B27,2013-10-04 05:22:00,
2013-10-04 00:24:00,62.5,59.2,29.64,NE,44,2.0,2.0,89,0.00,,,0.00,0,WeatherCatV1.21B27,2013-10-04 05:24:00,
2013-10-04 00:26:00,62.6,59.3,29.64,NE,44,2.0,4.0,89,0.00,,,0.00,0,WeatherCatV1.21B27,2013-10-04 05:26:00,
2013-10-04 00:27:00,62.5,59.2,29.64,NE,44,1.0,2.0,89,0.00,,,0.00,0,WeatherCatV1.21B27,2013-10-04 05:27:00,
2013-10-04 00:29:00,62.5,59.2,29.64,NE,43,0.0,3.0,89,0.00,,,0.00,0,WeatherCatV1.21B27,2013-10-04 05:29:00,
2013-10-04 00:31:00,62.5,59.2,29.64,NE,44,1.0,3.0,89,0.00,,,0.00,0,WeatherCatV1.21B27,2013-10-04 05:31:00,
2013-10-04 00:32:00,62.5,59.2,29.64,NE,44,0.0,3.0,89,0.00,,,0.00,0,WeatherCatV1.21B27,2013-10-04 05:32:00,
2013-10-04 00:34:00,62.5,59.2,29.64,NE,44,1.0,2.0,89,0.00,,,0.00,0,WeatherCatV1.21B27,2013-10-04 05:34:00,
2013-10-04 00:36:00,62.5,59.2,29.64,NE,44,0.0,2.0,89,0.00,,,0.00,0,WeatherCatV1.21B27,2013-10-04 05:36:00,
2013-10-04 00:37:00,62.5,59.2,29.64,NE,44,0.0,2.0,89,0.00,,,0.00,0,WeatherCatV1.21B27,2013-10-04 05:37:00,
2013-10-04 00:38:00,62.5,59.2,29.64,NE,44,0.0,1.0,89,0.00,,,0.00,0,WeatherCatV1.21B27,2013-10-04 05:38:00,
2013-10-04 00:39:00,62.5,59.2,29.64,NE,44,2.0,2.0,89,0.00,,,0.00,0,WeatherCatV1.21B27,2013-10-04 05:39:00,
2013-10-04 00:40:00,62.5,59.2,29.64,NE,44,0.0,3.0,89,0.00,,,0.00,0,WeatherCatV1.21B27,2013-10-04 05:40:00,
2013-10-04 00:41:00,62.5,59.2,29.64,NE,44,2.0,4.0,89,0.00,,,0.00,0,WeatherCatV1.21B27,2013-10-04 05:41:00,
2013-10-04 00:42:00,62.6,59.3,29.64,NE,46,4.0,4.0,89,0.00,,,0.00,0,WeatherCatV1.21B27,2013-10-04 05:42:00,
2013-10-04 00:44:00,62.6,59.3,29.64,NE,51,1.0,2.0,89,0.00,,,0.00,0,WeatherCatV1.21B27,2013-10-04 05:44:00,
2013-10-04 00:45:00,62.7,59.4,29.64,NE,51,2.0,3.0,89,0.00,,,0.00,0,WeatherCatV1.21B27,2013-10-04 05:45:00,
2013-10-04 00:46:00,62.7,59.4,29.64,ENE,74,0.0,5.0,89,0.00,,,0.00,0,WeatherCatV1.21B27,2013-10-04 05:46:00,
2013-10-04 00:48:00,62.8,59.5,29.64,NE,41,1.0,5.0,89,0.00,,,0.00,0,WeatherCatV1.21B27,2013-10-04 05:48:00,
2013-10-04 00:49:00,62.8,59.5,29.63,NE,42,2.0,4.0,89,0.00,,,0.00,0,WeatherCatV1.21B27,2013-10-04 05:49:00,
2013-10-04 00:50:00,62.8,59.5,29.63,NE,42,2.0,4.0,89,0.00,,,0.00,0,WeatherCatV1.21B27,2013-10-04 05:50:00,
2013-10-04 00:51:00,62.8,59.5,29.63,NE,38,3.0,3.0,89,0.00,,,0.00,0,WeatherCatV1.21B27,2013-10-04 05:51:00,
2013-10-04 00:53:00,62.9,59.6,29.63,NE,45,3.0,3.0,89,0.00,,,0.00,0,WeatherCatV1.21B27,2013-10-04 05:53:00,
2013-10-04 00:54:00,62.9,59.6,29.63,NNE,24,2.0,4.0,89,0.00,,,0.00,0,WeatherCatV1.21B27,2013-10-04 05:54:00,
2013-10-04 00:55:00,62.9,59.6,29.63,NNE,24,0.0,4.0,89,0.00,,,0.00,0,WeatherCatV1.21B27,2013-10-04 05:55:00,
2013-10-04 00:56:00,63.0,59.7,29.63,NNE,26,0.0,4.0,89,0.00,,,0.00,0,WeatherCatV1.21B27,2013-10-04 05:56:00,
2013-10-04 00:57:00,63.0,59.7,29.63,NNE,26,1.0,4.0,89,0.00,,,0.00,0,WeatherCatV1.21B27,2013-10-04 05:57:00,
2013-10-04 00:58:00,63.0,59.7,29.63,ENE,57,2.0,6.0,89,0.00,,,0.00,0,WeatherCatV1.21B27,2013-10-04 05:58:00,
2013-10-04 01:00:00,63.1,59.8,29.63,NE,41,1.0,7.0,89,0.00,,,0.00,0,WeatherCatV1.21B27,2013-10-04 06:00:00,
2013-10-04 01:02:00,63.1,59.8,29.63,ENE,66,2.0,3.0,89,0.00,,,0.00,0,WeatherCatV1.21B27,2013-10-04 06:02:00,
2013-10-04 01:04:00,63.2,59.9,29.63,ENE,59,3.0,4.0,89,0.00,,,0.00,0,WeatherCatV1.21B27,2013-10-04 06:04:00,
2013-10-04 01:05:00,63.3,60.0,29.63,ENE,61,5.0,5.0,89,0.00,,,0.00,0,WeatherCatV1.21B27,2013-10-04 06:05:00,
2013-10-04 01:07:00,63.3,60.0,29.63,ENE,61,1.0,5.0,89,0.00,,,0.00,0,WeatherCatV1.21B27,2013-10-04 06:07:00,
2013-10-04 01:09:00,63.4,59.8,29.63,ENE,58,4.0,4.0,88,0.00,,,0.00,0,WeatherCatV1.21B27,2013-10-04 06:09:00,
2013-10-04 01:10:00,63.5,59.9,29.63,ENE,59,0.0,4.0,88,0.00,,,0.00,0,WeatherCatV1.21B27,2013-10-04 06:10:00,
2013-10-04 01:12:00,63.5,59.9,29.63,East,82,1.0,4.0,88,0.00,,,0.00,0,WeatherCatV1.21B27,2013-10-04 06:12:00,
2013-10-04 01:14:00,63.6,60.0,29.63,East,94,5.0,7.0,88,0.00,,,0.00,0,WeatherCatV1.21B27,2013-10-04 06:14:00,
2013-10-04 01:15:00,63.6,60.0,29.63,East,94,2.0,7.0,88,0.00,,,0.00,0,WeatherCatV1.21B27,2013-10-04 06:15:00,
2013-10-04 01:17:00,63.6,60.0,29.63,ENE,64,6.0,7.0,88,0.00,,,0.00,0,WeatherCatV1.21B27,2013-10-04 06:17:00,
2013-10-04 01:19:00,63.7,60.1,29.63,ENE,61,5.0,6.0,88,0.00,,,0.00,0,WeatherCatV1.21B27,2013-10-04 06:19:00,
2013-10-04 01:20:00,63.7,60.1,29.63,ENE,77,4.0,6.0,88,0.00,,,0.00,0,WeatherCatV1.21B27,2013-10-04 06:20:00,
2013-10-04 01:21:00,63.7,60.1,29.63,ENE,69,6.0,6.0,88,0.00,,,0.00,0,WeatherCatV1.21B27,2013-10-04 06:21:00,
2013-10-04 01:22:00,63.7,60.1,29.63,East,83,4.0,7.0,88,0.00,,,0.00,0,WeatherCatV1.21B27,2013-10-04 06:22:00,
2013-10-04 01:23:00,63.7,60.1,29.63,ENE,71,7.0,7.0,88,0.00,,,0.00,0,WeatherCatV1.21B27,2013-10-04 06:23:00,
2013-10-04 01:24:00,63.8,60.2,29.63,ENE,75,3.0,7.0,88,0.00,,,0.00,0,WeatherCatV1.21B27,2013-10-04 06:24:00,
2013-10-04 01:26:00,63.8,60.2,29.63,ENE,78,2.0,4.0,88,0.00,,,0.00,0,WeatherCatV1.21B27,2013-10-04 06:26:00,
2013-10-04 01:27:00,63.7,60.1,29.63,ENE,69,0.0,5.0,88,0.00,,,0.00,0,WeatherCatV1.21B27,2013-10-04 06:27:00,
2013-10-04 01:28:00,63.7,60.1,29.63,ENE,71,3.0,4.0,88,0.00,,,0.00,0,WeatherCatV1.21B27,2013-10-04 06:28:00,
2013-10-04 01:30:00,63.8,60.2,29.63,ENE,73,3.0,3.0,88,0.00,,,0.00,0,WeatherCatV1.21B27,2013-10-04 06:30:00,
2013-10-04 01:31:00,63.7,60.1,29.63,ENE,72,4.0,6.0,88,0.00,,,0.00,0,WeatherCatV1.21B27,2013-10-04 06:31:00,
2013-10-04 01:32:00,63.7,60.1,29.63,ENE,72,2.0,6.0,88,0.00,,,0.00,0,WeatherCatV1.21B27,2013-10-04 06:32:00,
2013-10-04 01:33:00,63.7,60.1,29.63,NE,56,4.0,5.0,88,0.00,,,0.00,0,WeatherCatV1.21B27,2013-10-04 06:33:00,
2013-10-04 01:35:00,63.7,60.1,29.63,NE,55,2.0,5.0,88,0.00,,,0.00,0,WeatherCatV1.21B27,2013-10-04 06:35:00,
2013-10-04 01:36:00,63.7,60.1,29.63,NE,50,3.0,5.0,88,0.00,,,0.00,0,WeatherCatV1.21B27,2013-10-04 06:36:00,
2013-10-04 01:37:00,63.7,60.1,29.63,East,89,1.0,6.0,88,0.00,,,0.00,0,WeatherCatV1.21B27,2013-10-04 06:37:00,
2013-10-04 01:38:00,63.7,60.1,29.63,East,89,2.0,6.0,88,0.00,,,0.00,0,WeatherCatV1.21B27,2013-10-04 06:38:00,
2013-10-04 01:41:00,63.7,60.1,29.63,East,98,1.0,4.0,88,0.00,,,0.00,0,WeatherCatV1.21B27,2013-10-04 06:41:00,
2013-10-04 01:42:00,63.6,60.0,29.63,East,98,0.0,2.0,88,0.00,,,0.00,0,WeatherCatV1.21B27,2013-10-04 06:42:00,
2013-10-04 01:43:00,63.6,60.0,29.63,East,98,3.0,3.0,88,0.00,,,0.00,0,WeatherCatV1.21B27,2013-10-04 06:43:00,
2013-10-04 01:46:00,63.6,60.0,29.63,East,98,1.0,4.0,88,0.00,,,0.00,0,WeatherCatV1.21B27,2013-10-04 06:46:00,
2013-10-04 01:47:00,63.6,60.0,29.63,East,98,2.0,4.0,88,0.00,,,0.00,0,WeatherCatV1.21B27,2013-10-04 06:47:00,
2013-10-04 01:48:00,63.6,60.0,29.63,East,96,1.0,4.0,88,0.00,,,0.00,0,WeatherCatV1.21B27,2013-10-04 06:48:00,
2013-10-04 01:52:00,63.6,60.0,29.63,ENE,66,1.0,5.0,88,0.00,,,0.00,0,WeatherCatV1.21B27,2013-10-04 06:52:00,
2013-10-04 01:53:00,63.5,59.9,29.63,ENE,65,0.0,5.0,88,0.00,,,0.00,0,WeatherCatV1.21B27,2013-10-04 06:53:00,
2013-10-04 01:54:00,63.5,59.9,29.63,East,96,2.0,9.0,88,0.00,,,0.00,0,WeatherCatV1.21B27,2013-10-04 06:54:00,
2013-10-04 01:57:00,63.5,60.2,29.64,ENE,77,2.0,3.0,89,0.00,,,0.00,0,WeatherCatV1.21B27,2013-10-04 06:57:00,
2013-10-04 01:58:00,63.5,59.6,29.64,ENE,71,5.0,5.0,87,0.00,,,0.00,0,WeatherCatV1.21B27,2013-10-04 06:58:00,
2013-10-04 02:00:00,63.4,59.8,29.64,NE,44,3.0,6.0,88,0.00,,,0.00,0,WeatherCatV1.21B27,2013-10-04 07:00:00,
2013-10-04 02:02:00,63.4,59.8,29.64,ENE,59,6.0,6.0,88,0.00,,,0.00,0,WeatherCatV1.21B27,2013-10-04 07:02:00,
2013-10-04 02:03:00,63.4,59.8,29.64,ENE,65,3.0,6.0,88,0.00,,,0.00,0,WeatherCatV1.21B27,2013-10-04 07:03:00,
2013-10-04 02:05:00,63.3,59.7,29.64,ENE,69,0.0,5.0,88,0.00,,,0.00,0,WeatherCatV1.21B27,2013-10-04 07:05:00,
2013-10-04 02:07:00,63.3,59.7,29.63,ENE,61,2.0,4.0,88,0.00,,,0.00,0,WeatherCatV1.21B27,2013-10-04 07:07:00,
2013-10-04 02:08:00,63.2,59.6,29.63,ENE,61,3.0,3.0,88,0.00,,,0.00,0,WeatherCatV1.21B27,2013-10-04 07:08:00,
2013-10-04 02:10:00,63.2,59.6,29.63,NE,55,5.0,7.0,88,0.00,,,0.00,0,WeatherCatV1.21B27,2013-10-04 07:10:00,
2013-10-04 02:12:00,63.1,59.5,29.64,NE,48,3.0,5.0,88,0.00,,,0.00,0,WeatherCatV1.21B27,2013-10-04 07:12:00,
2013-10-04 02:13:00,63.1,59.5,29.64,NE,48,1.0,5.0,88,0.00,,,0.00,0,WeatherCatV1.21B27,2013-10-04 07:13:00,
2013-10-04 02:15:00,63.0,59.4,29.64,NE,51,4.0,6.0,88,0.00,,,0.00,0,WeatherCatV1.21B27,2013-10-04 07:15:00,
2013-10-04 02:17:00,63.0,59.4,29.63,East,86,1.0,5.0,88,0.00,,,0.00,0,WeatherCatV1.21B27,2013-10-04 07:17:00,
2013-10-04 02:18:00,63.0,59.4,29.63,East,86,3.0,5.0,88,0.00,,,0.00,0,WeatherCatV1.21B27,2013-10-04 07:18:00,
2013-10-04 02:19:00,62.9,59.3,29.63,East,90,7.0,7.0,88,0.00,,,0.00,0,WeatherCatV1.21B27,2013-10-04 07:19:00,
2013-10-04 02:20:00,62.9,59.3,29.63,SE,129,4.0,7.0,88,0.00,,,0.00,0,WeatherCatV1.21B27,2013-10-04 07:20:00,
2013-10-04 02:22:00,62.9,59.3,29.63,ESE,119,4.0,9.0,88,0.00,,,0.00,0,WeatherCatV1.21B27,2013-10-04 07:22:00,
2013-10-04 02:23:00,62.9,59.3,29.63,ESE,117,1.0,9.0,88,0.00,,,0.00,0,WeatherCatV1.21B27,2013-10-04 07:23:00,
2013-10-04 02:25:00,62.9,59.3,29.63,ESE,117,5.0,10.0,88,0.00,,,0.00,0,WeatherCatV1.21B27,2013-10-04 07:25:00,
2013-10-04 02:27:00,62.9,59.3,29.63,East,101,5.0,6.0,88,0.00,,,0.00,0,WeatherCatV1.21B27,2013-10-04 07:27:00,
2013-10-04 02:28:00,62.9,59.3,29.63,East,99,5.0,5.0,88,0.00,,,0.00,0,WeatherCatV1.21B27,2013-10-04 07:28:00,
2013-10-04 02:30:00,62.9,59.3,29.63,SE,143,3.0,10.0,88,0.00,,,0.00,0,WeatherCatV1.21B27,2013-10-04 07:30:00,
2013-10-04 02:32:00,62.9,59.3,29.63,East,87,5.0,5.0,88,0.00,,,0.00,0,WeatherCatV1.21B27,2013-10-04 07:32:00,
2013-10-04 02:33:00,63.0,59.4,29.63,ENE,73,6.0,6.0,88,0.00,,,0.00,0,WeatherCatV1.21B27,2013-10-04 07:33:00,
2013-10-04 02:35:00,62.9,59.3,29.63,East,96,3.0,6.0,88,0.00,,,0.00,0,WeatherCatV1.21B27,2013-10-04 07:35:00,
2013-10-04 02:36:00,62.9,59.3,29.63,East,95,3.0,6.0,88,0.00,,,0.00,0,WeatherCatV1.21B27,2013-10-04 07:36:00,
2013-10-04 02:38:00,62.9,59.3,29.63,East,90,2.0,7.0,88,0.00,,,0.00,0,WeatherCatV1.21B27,2013-10-04 07:38:00,
2013-10-04 02:40:00,62.8,59.2,29.63,ESE,113,4.0,10.0,88,0.00,,,0.00,0,WeatherCatV1.21B27,2013-10-04 07:40:00,
2013-10-04 02:41:00,62.8,59.2,29.63,ESE,113,3.0,10.0,88,0.00,,,0.00,0,WeatherCatV1.21B27,2013-10-04 07:41:00,
2013-10-04 02:43:00,62.8,59.2,29.63,ESE,111,3.0,4.0,88,0.00,,,0.00,0,WeatherCatV1.21B27,2013-10-04 07:43:00,
2013-10-04 02:44:00,62.7,58.8,29.63,ESE,111,1.0,5.0,87,0.00,,,0.00,0,WeatherCatV1.21B27,2013-10-04 07:44:00,
2013-10-04 02:46:00,62.7,59.1,29.63,NE,56,3.0,9.0,88,0.00,,,0.00,0,WeatherCatV1.21B27,2013-10-04 07:46:00,
2013-10-04 02:48:00,62.6,59.0,29.63,ESE,123,1.0,7.0,88,0.00,,,0.00,0,WeatherCatV1.21B27,2013-10-04 07:48:00,
2013-10-04 02:49:00,62.6,59.0,29.62,SE,126,0.0,7.0,88,0.00,,,0.00,0,WeatherCatV1.21B27,2013-10-04 07:49:00,
2013-10-04 02:51:00,62.5,58.9,29.62,ESE,123,4.0,4.0,88,0.00,,,0.00,0,WeatherCatV1.21B27,2013-10-04 07:51:00,
2013-10-04 02:53:00,62.5,58.9,29.62,ESE,123,2.0,5.0,88,0.00,,,0.00,0,WeatherCatV1.21B27,2013-10-04 07:53:00,
2013-10-04 02:54:00,62.4,58.8,29.62,ESE,123,2.0,4.0,88,0.00,,,0.00,0,WeatherCatV1.21B27,2013-10-04 07:54:00,
2013-10-04 02:56:00,62.4,58.8,29.62,ENE,61,5.0,7.0,88,0.00,,,0.00,0,WeatherCatV1.21B27,2013-10-04 07:56:00,
2013-10-04 02:58:00,62.3,59.0,29.62,East,87,4.0,7.0,89,0.00,,,0.00,0,WeatherCatV1.21B27,2013-10-04 07:58:00,
2013-10-04 03:00:00,62.3,59.0,29.62,ESE,119,2.0,7.0,89,0.00,,,0.00,0,WeatherCatV1.21B27,2013-10-04 08:00:00,
2013-10-04 03:02:00,62.3,59.0,29.62,ESE,113,5.0,7.0,89,0.00,,,0.00,0,WeatherCatV1.21B27,2013-10-04 08:02:00,
2013-10-04 03:03:00,62.3,59.0,29.62,East,97,3.0,7.0,89,0.00,,,0.00,0,WeatherCatV1.21B27,2013-10-04 08:03:00,
2013-10-04 03:04:00,62.3,59.0,29.62,East,98,3.0,7.0,89,0.00,,,0.00,0,WeatherCatV1.21B27,2013-10-04 08:04:00,
2013-10-04 03:05:00,62.3,59.0,29.62,East,99,5.0,7.0,89,0.00,,,0.00,0,WeatherCatV1.21B27,2013-10-04 08:05:00,
2013-10-04 03:07:00,62.2,58.9,29.62,East,99,3.0,4.0,89,0.00,,,0.00,0,WeatherCatV1.21B27,2013-10-04 08:07:00,
2013-10-04 03:09:00,62.2,58.9,29.62,East,100,1.0,4.0,89,0.00,,,0.00,0,WeatherCatV1.21B27,2013-10-04 08:09:00,
2013-10-04 03:11:00,62.2,58.9,29.62,ESE,111,5.0,11.0,89,0.00,,,0.00,0,WeatherCatV1.21B27,2013-10-04 08:11:00,
2013-10-04 03:12:00,62.2,58.9,29.62,East,98,5.0,11.0,89,0.00,,,0.00,0,WeatherCatV1.21B27,2013-10-04 08:12:00,
2013-10-04 03:14:00,62.2,58.9,29.62,East,99,4.0,5.0,89,0.00,,,0.00,0,WeatherCatV1.21B27,2013-10-04 08:14:00,
2013-10-04 03:16:00,62.2,58.9,29.62,ESE,106,3.0,5.0,89,0.00,,,0.00,0,WeatherCatV1.21B27,2013-10-04 08:16:00,
2013-10-04 03:17:00,62.2,59.2,29.61,ESE,114,3.0,10.0,90,0.00,,,0.00,0,WeatherCatV1.21B27,2013-10-04 08:17:00,
2013-10-04 03:18:00,62.2,59.2,29.61,ESE,114,4.0,10.0,90,0.00,,,0.00,0,WeatherCatV1.21B27,2013-10-04 08:18:00,
2013-10-04 03:19:00,62.2,59.2,29.61,ESE,111,6.0,6.0,90,0.00,,,0.00,0,WeatherCatV1.21B27,2013-10-04 08:19:00,
2013-10-04 03:21:00,62.2,59.2,29.61,ESE,105,0.0,5.0,90,0.00,,,0.00,0,WeatherCatV1.21B27,2013-10-04 08:21:00,
2013-10-04 03:23:00,62.2,59.2,29.61,East,98,5.0,5.0,90,0.00,,,0.00,0,WeatherCatV1.21B27,2013-10-04 08:23:00,
2013-10-04 03:24:00,62.2,59.2,29.61,East,98,2.0,9.0,90,0.00,,,0.00,0,WeatherCatV1.21B27,2013-10-04 08:24:00,
2013-10-04 03:25:00,62.2,59.2,29.61,East,98,4.0,9.0,90,0.00,,,0.00,0,WeatherCatV1.21B27,2013-10-04 08:25:00,
2013-10-04 03:26:00,62.2,59.2,29.61,East,98,4.0,5.0,90,0.00,,,0.00,0,WeatherCatV1.21B27,2013-10-04 08:26:00,
2013-10-04 03:28:00,62.2,59.2,29.61,East,94,3.0,6.0,90,0.00,,,0.00,0,WeatherCatV1.21B27,2013-10-04 08:28:00,
2013-10-04 03:30:00,62.2,59.2,29.61,East,98,2.0,8.0,90,0.00,,,0.00,0,WeatherCatV1.21B27,2013-10-04 08:30:00,
2013-10-04 03:31:00,62.2,59.2,29.61,East,94,4.0,5.0,90,0.00,,,0.00,0,WeatherCatV1.21B27,2013-10-04 08:31:00,
2013-10-04 03:33:00,62.2,59.2,29.61,East,92,2.0,5.0,90,0.00,,,0.00,0,WeatherCatV1.21B27,2013-10-04 08:33:00,
2013-10-04 03:35:00,62.2,59.2,29.61,East,92,1.0,2.0,90,0.00,,,0.00,0,WeatherCatV1.21B27,2013-10-04 08:35:00,
2013-10-04 03:37:00,62.2,59.2,29.61,East,92,1.0,3.0,90,0.00,,,0.00,0,WeatherCatV1.21B27,2013-10-04 08:37:00,
2013-10-04 03:38:00,62.2,59.2,29.61,East,91,3.0,5.0,90,0.00,,,0.00,0,WeatherCatV1.21B27,2013-10-04 08:38:00,
2013-10-04 03:40:00,62.2,59.2,29.61,East,91,4.0,4.0,90,0.00,,,0.00,0,WeatherCatV1.21B27,2013-10-04 08:40:00,
2013-10-04 03:41:00,62.2,59.2,29.61,East,90,1.0,5.0,90,0.00,,,0.00,0,WeatherCatV1.21B27,2013-10-04 08:41:00,
2013-10-04 03:42:00,62.3,59.3,29.61,East,90,2.0,5.0,90,0.00,,,0.00,0,WeatherCatV1.21B27,2013-10-04 08:42:00,
2013-10-04 03:43:00,62.3,59.3,29.61,East,90,5.0,6.0,90,0.00,,,0.00,0,WeatherCatV1.21B27,2013-10-04 08:43:00,
2013-10-04 03:45:00,62.3,59.3,29.61,East,91,0.0,5.0,90,0.00,,,0.00,0,WeatherCatV1.21B27,2013-10-04 08:45:00,
2013-10-04 03:46:00,62.3,59.3,29.61,East,91,7.0,7.0,90,0.00,,,0.00,0,WeatherCatV1.21B27,2013-10-04 08:46:00,
2013-10-04 03:47:00,62.3,59.3,29.61,East,90,5.0,7.0,90,0.00,,,0.00,0,WeatherCatV1.21B27,2013-10-04 08:47:00,
2013-10-04 03:48:00,62.3,59.3,29.61,East,94,3.0,8.0,90,0.00,,,0.00,0,WeatherCatV1.21B27,2013-10-04 08:48:00,
2013-10-04 03:49:00,62.3,59.3,29.61,ESE,103,0.0,8.0,90,0.00,,,0.00,0,WeatherCatV1.21B27,2013-10-04 08:49:00,
2013-10-04 03:50:00,62.4,59.4,29.61,East,101,3.0,8.0,90,0.00,,,0.00,0,WeatherCatV1.21B27,2013-10-04 08:50:00,
2013-10-04 03:51:00,62.4,59.4,29.61,ESE,103,2.0,10.0,90,0.00,,,0.00,0,WeatherCatV1.21B27,2013-10-04 08:51:00,
2013-10-04 03:52:00,62.4,59.4,29.61,ESE,103,2.0,10.0,90,0.00,,,0.00,0,WeatherCatV1.21B27,2013-10-04 08:52:00,
2013-10-04 03:53:00,62.4,59.4,29.61,ESE,102,0.0,5.0,90,0.00,,,0.00,0,WeatherCatV1.21B27,2013-10-04 08:53:00,
2013-10-04 03:55:00,62.4,59.4,29.61,ESE,102,2.0,2.0,90,0.00,,,0.00,0,WeatherCatV1.21B27,2013-10-04 08:55:00,
2013-10-04 03:56:00,62.4,59.4,29.61,ESE,102,4.0,4.0,90,0.00,,,0.00,0,WeatherCatV1.21B27,2013-10-04 08:56:00,
2013-10-04 03:57:00,62.5,59.5,29.61,ESE,102,0.0,4.0,90,0.00,,,0.00,0,WeatherCatV1.21B27,2013-10-04 08:57:00,
2013-10-04 03:58:00,62.5,59.5,29.61,ESE,102,1.0,4.0,90,0.00,,,0.00,0,WeatherCatV1.21B27,2013-10-04 08:58:00,
2013-10-04 04:00:00,62.5,59.5,29.61,ESE,102,0.0,1.0,90,0.00,,,0.00,0,WeatherCatV1.21B27,2013-10-04 09:00:00,
2013-10-04 04:01:00,62.5,59.5,29.61,ESE,102,1.0,3.0,90,0.00,,,0.00,0,WeatherCatV1.21B27,2013-10-04 09:01:00,
2013-10-04 04:02:00,62.5,59.5,29.61,East,98,2.0,5.0,90,0.00,,,0.00,0,WeatherCatV1.21B27,2013-10-04 09:02:00,
2013-10-04 04:03:00,62.5,59.5,29.61,East,98,1.0,5.0,90,0.00,,,0.00,0,WeatherCatV1.21B27,2013-10-04 09:03:00,
2013-10-04 04:05:00,62.5,59.5,29.61,East,98,1.0,4.0,90,0.00,,,0.00,0,WeatherCatV1.21B27,2013-10-04 09:05:00,
2013-10-04 04:07:00,62.5,59.5,29.61,East,98,1.0,1.0,90,0.00,,,0.00,0,WeatherCatV1.21B27,2013-10-04 09:07:00,
2013-10-04 04:08:00,62.5,59.5,29.61,East,98,4.0,4.0,90,0.00,,,0.00,0,WeatherCatV1.21B27,2013-10-04 09:08:00,
2013-10-04 04:09:00,62.6,59.6,29.61,East,98,0.0,4.0,90,0.00,,,0.00,0,WeatherCatV1.21B27,2013-10-04 09:09:00,
2013-10-04 04:10:00,62.6,59.6,29.61,East,98,2.0,4.0,90,0.00,,,0.00,0,WeatherCatV1.21B27,2013-10-04 09:10:00,
2013-10-04 04:12:00,62.6,59.6,29.61,East,82,0.0,7.0,90,0.00,,,0.00,0,WeatherCatV1.21B27,2013-10-04 09:12:00,
2013-10-04 04:13:00,62.6,59.6,29.61,East,82,0.0,2.0,90,0.00,,,0.00,0,WeatherCatV1.21B27,2013-10-04 09:13:00,
2013-10-04 04:14:00,62.6,59.6,29.61,East,83,1.0,4.0,90,0.00,,,0.00,0,WeatherCatV1.21B27,2013-10-04 09:14:00,
2013-10-04 04:16:00,62.6,59.6,29.61,East,83,0.0,2.0,90,0.00,,,0.00,0,WeatherCatV1.21B27,2013-10-04 09:16:00,
2013-10-04 04:17:00,62.6,59.6,29.61,East,83,1.0,4.0,90,0.00,,,0.00,0,WeatherCatV1.21B27,2013-10-04 09:17:00,
2013-10-04 04:18:00,62.7,59.7,29.61,East,84,0.0,5.0,90,0.00,,,0.00,0,WeatherCatV1.21B27,2013-10-04 09:18:00,
2013-10-04 04:19:00,62.7,59.7,29.61,East,84,1.0,5.0,90,0.00,,,0.00,0,WeatherCatV1.21B27,2013-10-04 09:19:00,
2013-10-04 04:21:00,62.7,59.7,29.61,East,83,4.0,5.0,90,0.00,,,0.00,0,WeatherCatV1.21B27,2013-10-04 09:21:00,
2013-10-04 04:22:00,62.7,59.7,29.61,East,83,3.0,5.0,90,0.00,,,0.00,0,WeatherCatV1.21B27,2013-10-04 09:22:00,
2013-10-04 04:23:00,62.8,59.8,29.61,East,82,3.0,4.0,90,0.00,,,0.00,0,WeatherCatV1.21B27,2013-10-04 09:23:00,
2013-10-04 04:24:00,62.8,59.8,29.61,East,82,0.0,4.0,90,0.00,,,0.00,0,WeatherCatV1.21B27,2013-10-04 09:24:00,
2013-10-04 04:26:00,62.8,59.5,29.61,ENE,64,0.0,11.0,89,0.00,,,0.00,0,WeatherCatV1.21B27,2013-10-04 09:26:00,
2013-10-04 04:27:00,62.8,59.5,29.61,ENE,76,3.0,5.0,89,0.00,,,0.00,0,WeatherCatV1.21B27,2013-10-04 09:27:00,
2013-10-04 04:28:00,62.9,59.6,29.61,East,82,4.0,4.0,89,0.00,,,0.00,0,WeatherCatV1.21B27,2013-10-04 09:28:00,
2013-10-04 04:29:00,62.9,59.6,29.61,SE,135,0.0,10.0,89,0.00,,,0.00,0,WeatherCatV1.21B27,2013-10-04 09:29:00,
2013-10-04 04:31:00,62.9,59.6,29.61,East,98,1.0,5.0,89,0.00,,,0.00,0,WeatherCatV1.21B27,2013-10-04 09:31:00,
2013-10-04 04:32:00,62.9,59.6,29.61,NE,53,3.0,6.0,89,0.00,,,0.00,0,WeatherCatV1.21B27,2013-10-04 09:32:00,
2013-10-04 04:33:00,62.9,59.6,29.61,ENE,65,1.0,6.0,89,0.00,,,0.00,0,WeatherCatV1.21B27,2013-10-04 09:33:00,
2013-10-04 04:35:00,62.9,59.6,29.61,NE,54,3.0,7.0,89,0.00,,,0.00,0,WeatherCatV1.21B27,2013-10-04 09:35:00,
2013-10-04 04:36:00,62.9,59.6,29.61,NE,54,0.0,5.0,89,0.00,,,0.00,0,WeatherCatV1.21B27,2013-10-04 09:36:00,
2013-10-04 04:37:00,62.9,59.6,29.61,NE,55,3.0,4.0,89,0.00,,,0.00,0,WeatherCatV1.21B27,2013-10-04 09:37:00,
2013-10-04 04:38:00,62.9,59.6,29.61,ENE,57,5.0,5.0,89,0.00,,,0.00,0,WeatherCatV1.21B27,2013-10-04 09:38:00,
2013-10-04 04:39:00,62.9,59.6,29.61,ENE,68,0.0,5.0,89,0.00,,,0.00,0,WeatherCatV1.21B27,2013-10-04 09:39:00,
2013-10-04 04:40:00,62.9,59.6,29.61,ENE,67,3.0,3.0,89,0.00,,,0.00,0,WeatherCatV1.21B27,2013-10-04 09:40:00,
2013-10-04 04:41:00,63.0,59.7,29.61,ENE,67,0.0,3.0,89,0.00,,,0.00,0,WeatherCatV1.21B27,2013-10-04 09:41:00,
2013-10-04 04:42:00,62.9,59.6,29.61,ENE,57,4.0,5.0,89,0.00,,,0.00,0,WeatherCatV1.21B27,2013-10-04 09:42:00,
2013-10-04 04:43:00,62.9,59.6,29.61,ENE,59,1.0,5.0,89,0.00,,,0.00,0,WeatherCatV1.21B27,2013-10-04 09:43:00,
2013-10-04 04:44:00,62.9,59.6,29.61,ENE,57,5.0,5.0,89,0.00,,,0.00,0,WeatherCatV1.21B27,2013-10-04 09:44:00,
2013-10-04 04:45:00,62.9,59.6,29.61,East,82,0.0,7.0,89,0.00,,,0.00,0,WeatherCatV1.21B27,2013-10-04 09:45:00,
2013-10-04 04:47:00,63.0,59.7,29.61,ESE,119,3.0,4.0,89,0.00,,,0.00,0,WeatherCatV1.21B27,2013-10-04 09:47:00,
2013-10-04 04:48:00,63.0,59.7,29.61,ESE,102,2.0,4.0,89,0.00,,,0.00,0,WeatherCatV1.21B27,2013-10-04 09:48:00,
2013-10-04 04:49:00,63.0,59.7,29.61,East,101,2.0,4.0,89,0.00,,,0.00,0,WeatherCatV1.21B27,2013-10-04 09:49:00,
2013-10-04 04:50:00,63.0,59.7,29.61,ESE,102,2.0,3.0,89,0.00,,,0.00,0,WeatherCatV1.21B27,2013-10-04 09:50:00,
2013-10-04 04:52:00,63.0,59.7,29.61,ESE,104,1.0,4.0,89,0.00,,,0.00,0,WeatherCatV1.21B27,2013-10-04 09:52:00,
2013-10-04 04:53:00,63.0,59.7,29.61,ESE,119,7.0,7.0,89,0.00,,,0.00,0,WeatherCatV1.21B27,2013-10-04 09:53:00,
2013-10-04 04:54:00,63.0,59.7,29.61,East,101,6.0,12.0,89,0.00,,,0.00,0,WeatherCatV1.21B27,2013-10-04 09:54:00,
2013-10-04 04:55:00,63.0,59.7,29.60,NE,52,0.0,9.0,89,0.00,,,0.00,0,WeatherCatV1.21B27,2013-10-04 09:55:00,
2013-10-04 04:57:00,63.0,59.7,29.61,ESE,109,4.0,7.0,89,0.00,,,0.00,0,WeatherCatV1.21B27,2013-10-04 09:57:00,
2013-10-04 04:58:00,63.0,59.7,29.61,ESE,109,2.0,4.0,89,0.00,,,0.00,0,WeatherCatV1.21B27,2013-10-04 09:58:00,
2013-10-04 04:59:00,63.0,59.7,29.61,ESE,109,1.0,4.0,89,0.00,,,0.00,0,WeatherCatV1.21B27,2013-10-04 09:59:00,
2013-10-04 05:00:00,63.0,59.7,29.61,ESE,112,3.0,9.0,89,0.00,,,0.00,0,WeatherCatV1.21B27,2013-10-04 10:00:00,
2013-10-04 05:02:00,63.0,59.7,29.61,ESE,112,4.0,4.0,89,0.00,,,0.00,0,WeatherCatV1.21B27,2013-10-04 10:02:00,
2013-10-04 05:03:00,63.0,59.7,29.61,ESE,113,3.0,5.0,89,0.00,,,0.00,0,WeatherCatV1.21B27,2013-10-04 10:03:00,
2013-10-04 05:04:00,63.1,59.8,29.60,ESE,120,2.0,5.0,89,0.00,,,0.00,0,WeatherCatV1.21B27,2013-10-04 10:04:00,
2013-10-04 05:06:00,63.0,59.7,29.61,ESE,121,2.0,5.0,89,0.00,,,0.00,0,WeatherCatV1.21B27,2013-10-04 10:06:00,
2013-10-04 05:07:00,63.0,59.7,29.60,ESE,119,0.0,5.0,89,0.00,,,0.00,0,WeatherCatV1.21B27,2013-10-04 10:07:00,
2013-10-04 05:08:00,63.0,59.7,29.60,East,89,3.0,6.0,89,0.00,,,0.00,0,WeatherCatV1.21B27,2013-10-04 10:08:00,
2013-10-04 05:09:00,63.0,59.7,29.61,East,89,5.0,6.0,89,0.00,,,0.00,0,WeatherCatV1.21B27,2013-10-04 10:09:00,
2013-10-04 05:10:00,63.0,59.7,29.60,ESE,105,9.0,9.0,89,0.00,,,0.00,0,WeatherCatV1.21B27,2013-10-04 10:10:00,
2013-10-04 05:11:00,63.0,60.0,29.60,ESE,121,3.0,9.0,90,0.00,,,0.00,0,WeatherCatV1.21B27,2013-10-04 10:11:00,
2013-10-04 05:12:00,63.0,60.0,29.60,ESE,121,0.0,6.0,90,0.00,,,0.00,0,WeatherCatV1.21B27,2013-10-04 10:12:00,
2013-10-04 05:13:00,63.1,60.1,29.61,ESE,123,1.0,4.0,90,0.00,,,0.00,0,WeatherCatV1.21B27,2013-10-04 10:13:00,
2013-10-04 05:14:00,63.1,60.1,29.60,ESE,122,1.0,3.0,90,0.00,,,0.00,0,WeatherCatV1.21B27,2013-10-04 10:14:00,
2013-10-04 05:15:00,63.1,60.1,29.60,SE,127,10.0,12.0,90,0.00,,,0.00,0,WeatherCatV1.21B27,2013-10-04 10:15:00,
2013-10-04 05:16:00,63.1,60.1,29.61,East,87,5.0,12.0,90,0.00,,,0.00,0,WeatherCatV1.21B27,2013-10-04 10:16:00,
2013-10-04 05:17:00,63.1,60.1,29.60,ENE,74,4.0,10.0,90,0.00,,,0.00,0,WeatherCatV1.21B27,2013-10-04 10:17:00,
2013-10-04 05:18:00,63.1,60.1,29.61,ENE,69,3.0,10.0,90,0.00,,,0.00,0,WeatherCatV1.21B27,2013-10-04 10:18:00,
2013-10-04 05:19:00,63.1,60.1,29.61,ESE,105,4.0,7.0,90,0.00,,,0.00,0,WeatherCatV1.21B27,2013-10-04 10:19:00,
2013-10-04 05:21:00,63.1,60.1,29.61,ESE,106,5.0,14.0,90,0.00,,,0.00,0,WeatherCatV1.21B27,2013-10-04 10:21:00,
2013-10-04 05:22:00,63.1,60.1,29.61,East,98,11.0,15.0,90,0.00,,,0.00,0,WeatherCatV1.21B27,2013-10-04 10:22:00,
2013-10-04 05:23:00,63.1,60.1,29.61,East,91,6.0,15.0,90,0.00,,,0.00,0,WeatherCatV1.21B27,2013-10-04 10:23:00,
2013-10-04 05:24:00,63.1,60.1,29.61,ESE,107,3.0,15.0,90,0.00,,,0.00,0,WeatherCatV1.21B27,2013-10-04 10:24:00,
2013-10-04 05:26:00,63.1,60.1,29.61,East,87,4.0,7.0,90,0.00,,,0.00,0,WeatherCatV1.21B27,2013-10-04 10:26:00,
2013-10-04 05:28:00,63.1,60.1,29.61,East,87,4.0,5.0,90,0.00,,,0.00,0,WeatherCatV1.21B27,2013-10-04 10:28:00,
2013-10-04 05:29:00,63.1,60.1,29.61,ENE,74,4.0,7.0,90,0.00,,,0.00,0,WeatherCatV1.21B27,2013-10-04 10:29:00,
2013-10-04 05:31:00,63.1,60.1,29.61,ENE,76,4.0,7.0,90,0.00,,,0.00,0,WeatherCatV1.21B27,2013-10-04 10:31:00,
2013-10-04 05:32:00,63.1,60.1,29.61,East,98,1.0,7.0,90,0.00,,,0.00,0,WeatherCatV1.21B27,2013-10-04 10:32:00,
2013-10-04 05:33:00,63.1,60.1,29.61,East,98,6.0,6.0,90,0.00,,,0.00,0,WeatherCatV1.21B27,2013-10-04 10:33:00,
2013-10-04 05:34:00,63.1,60.1,29.61,ESE,113,2.0,10.0,90,0.00,,,0.00,0,WeatherCatV1.21B27,2013-10-04 10:34:00,
2013-10-04 05:36:00,63.1,60.1,29.61,NE,49,4.0,6.0,90,0.00,,,0.00,0,WeatherCatV1.21B27,2013-10-04 10:36:00,
2013-10-04 05:37:00,63.1,60.1,29.61,ENE,75,6.0,7.0,90,0.00,,,0.00,0,WeatherCatV1.21B27,2013-10-04 10:37:00,
2013-10-04 05:38:00,63.1,60.1,29.61,ENE,74,3.0,7.0,90,0.00,,,0.00,0,WeatherCatV1.21B27,2013-10-04 10:38:00,
2013-10-04 05:39:00,63.1,60.1,29.61,ENE,76,5.0,6.0,90,0.00,,,0.00,0,WeatherCatV1.21B27,2013-10-04 10:39:00,
2013-10-04 05:42:00,63.1,60.1,29.61,East,80,4.0,11.0,90,0.00,,,0.00,0,WeatherCatV1.21B27,2013-10-04 10:42:00,
2013-10-04 05:43:00,63.1,60.1,29.61,East,81,3.0,11.0,90,0.00,,,0.00,0,WeatherCatV1.21B27,2013-10-04 10:43:00,
2013-10-04 05:44:00,63.1,60.1,29.62,East,81,3.0,5.0,90,0.00,,,0.00,0,WeatherCatV1.21B27,2013-10-04 10:44:00,
2013-10-04 05:45:00,63.1,60.1,29.61,SE,128,9.0,10.0,90,0.00,,,0.00,0,WeatherCatV1.21B27,2013-10-04 10:45:00,
2013-10-04 05:47:00,63.1,60.1,29.61,ENE,70,5.0,10.0,90,0.00,,,0.00,0,WeatherCatV1.21B27,2013-10-04 10:47:00,
2013-10-04 05:48:00,63.1,60.1,29.61,ENE,70,2.0,10.0,90,0.00,,,0.00,0,WeatherCatV1.21B27,2013-10-04 10:48:00,
2013-10-04 05:49:00,63.1,60.1,29.61,ENE,69,3.0,4.0,90,0.00,,,0.00,0,WeatherCatV1.21B27,2013-10-04 10:49:00,
2013-10-04 05:50:00,63.1,60.1,29.61,East,80,1.0,6.0,90,0.00,,,0.00,0,WeatherCatV1.21B27,2013-10-04 10:50:00,
2013-10-04 05:52:00,63.1,60.1,29.61,East,80,3.0,4.0,90,0.00,,,0.00,0,WeatherCatV1.21B27,2013-10-04 10:52:00,
2013-10-04 05:53:00,63.1,60.1,29.61,ENE,78,3.0,5.0,90,0.00,,,0.00,0,WeatherCatV1.21B27,2013-10-04 10:53:00,
2013-10-04 05:54:00,63.1,60.1,29.61,ESE,111,13.0,13.0,90,0.00,,,0.00,0,WeatherCatV1.21B27,2013-10-04 10:54:00,
2013-10-04 05:55:00,63.2,60.2,29.61,ESE,113,4.0,13.0,90,0.00,,,0.00,0,WeatherCatV1.21B27,2013-10-04 10:55:00,
2013-10-04 05:58:00,63.2,60.2,29.61,ESE,113,0.0,5.0,90,0.00,,,0.00,0,WeatherCatV1.21B27,2013-10-04 10:58:00,
2013-10-04 05:59:00,63.2,60.2,29.61,SE,126,13.0,13.0,90,0.00,,,0.00,0,WeatherCatV1.21B27,2013-10-04 10:59:00,
2013-10-04 06:00:00,63.3,60.3,29.61,ESE,123,3.0,13.0,90,0.00,,,0.00,0,WeatherCatV1.21B27,2013-10-04 11:00:00,
2013-10-04 06:03:00,63.4,61.0,29.61,ESE,110,4.0,7.0,92,0.00,,,0.00,0,WeatherCatV1.21B27,2013-10-04 11:03:00,
2013-10-04 06:04:00,63.4,60.7,29.62,ESE,115,11.0,13.0,91,0.00,,,0.00,0,WeatherCatV1.21B27,2013-10-04 11:04:00,
2013-10-04 06:05:00,63.4,60.7,29.62,ESE,115,6.0,13.0,91,0.00,,,0.00,0,WeatherCatV1.21B27,2013-10-04 11:05:00,
2013-10-04 06:06:00,63.4,60.7,29.62,ESE,114,4.0,13.0,91,0.00,,,0.00,0,WeatherCatV1.21B27,2013-10-04 11:06:00,
2013-10-04 06:08:00,63.4,60.4,29.61,ESE,110,3.0,5.0,90,0.00,,,0.00,0,WeatherCatV1.21B27,2013-10-04 11:08:00,
2013-10-04 06:09:00,63.4,60.4,29.62,ESE,111,1.0,5.0,90,0.00,,,0.00,0,WeatherCatV1.21B27,2013-10-04 11:09:00,
2013-10-04 06:10:00,63.5,60.5,29.62,ESE,108,4.0,4.0,90,0.00,,,0.00,0,WeatherCatV1.21B27,2013-10-04 11:10:00,
2013-10-04 06:11:00,63.5,60.5,29.61,ENE,70,4.0,5.0,90,0.00,,,0.00,0,WeatherCatV1.21B27,2013-10-04 11:11:00,
2013-10-04 06:13:00,63.5,60.8,29.61,East,89,2.0,3.0,91,0.00,,,0.00,0,WeatherCatV1.21B27,2013-10-04 11:13:00,
2013-10-04 06:14:00,63.5,60.8,29.61,East,88,1.0,3.0,91,0.00,,,0.00,0,WeatherCatV1.21B27,2013-10-04 11:14:00,
2013-10-04 06:15:00,63.5,60.5,29.61,East,87,5.0,5.0,90,0.00,,,0.00,0,WeatherCatV1.21B27,2013-10-04 11:15:00,
2013-10-04 06:16:00,63.5,60.5,29.61,East,82,2.0,6.0,90,0.00,,,0.00,0,WeatherCatV1.21B27,2013-10-04 11:16:00,
2013-10-04 06:19:00,63.5,60.8,29.60,NE,55,2.0,7.0,91,0.00,,,0.00,0,WeatherCatV1.21B27,2013-10-04 11:19:00,
2013-10-04 06:20:00,63.5,60.8,29.60,ENE,57,0.0,7.0,91,0.00,,,0.00,0,WeatherCatV1.21B27,2013-10-04 11:20:00,
2013-10-04 06:21:00,63.6,60.9,29.60,ENE,69,4.0,6.0,91,0.00,,,0.00,0,WeatherCatV1.21B27,2013-10-04 11:21:00,
2013-10-04 06:24:00,63.6,60.9,29.61,NE,56,4.0,5.0,91,0.00,,,0.00,0,WeatherCatV1.21B27,2013-10-04 11:24:00,
2013-10-04 06:25:00,63.6,60.9,29.61,South,184,5.0,10.0,91,0.00,,,0.00,0,WeatherCatV1.21B27,2013-10-04 11:25:00,
2013-10-04 06:26:00,63.6,60.9,29.61,SSW,209,4.0,10.0,91,0.00,,,0.00,0,WeatherCatV1.21B27,2013-10-04 11:26:00,
2013-10-04 06:29:00,63.6,60.9,29.61,SSW,196,4.0,4.0,91,0.00,,,0.00,0,WeatherCatV1.21B27,2013-10-04 11:29:00,
2013-10-04 06:30:00,63.6,60.9,29.62,SSW,196,0.0,4.0,91,0.00,,,0.00,0,WeatherCatV1.21B27,2013-10-04 11:30:00,
2013-10-04 06:31:00,63.6,60.9,29.62,SSW,196,0.0,4.0,91,0.00,,,0.00,0,WeatherCatV1.21B27,2013-10-04 11:31:00,
2013-10-04 06:34:00,63.7,61.0,29.61,SSW,196,1.0,2.0,91,0.00,,,0.00,0,WeatherCatV1.21B27,2013-10-04 11:34:00,
2013-10-04 06:35:00,63.8,61.1,29.61,South,171,1.0,6.0,91,0.00,,,0.00,0,WeatherCatV1.21B27,2013-10-04 11:35:00,
2013-10-04 06:36:00,63.8,61.1,29.61,South,171,2.0,6.0,91,0.00,,,0.00,0,WeatherCatV1.21B27,2013-10-04 11:36:00,
2013-10-04 06:39:00,64.2,61.5,29.61,ESE,115,5.0,13.0,91,0.00,,,0.00,0,WeatherCatV1.21B27,2013-10-04 11:39:00,
2013-10-04 06:41:00,64.3,61.6,29.61,ESE,115,5.0,7.0,91,0.00,,,0.00,0,WeatherCatV1.21B27,2013-10-04 11:41:00,
2013-10-04 06:42:00,64.4,61.7,29.61,ESE,107,3.0,11.0,91,0.00,,,0.00,0,WeatherCatV1.21B27,2013-10-04 11:42:00,
2013-10-04 06:44:00,64.5,61.8,29.61,ESE,113,0.0,3.0,91,0.00,,,0.00,0,WeatherCatV1.21B27,2013-10-04 11:44:00,
2013-10-04 06:45:00,64.5,61.8,29.61,ESE,113,1.0,3.0,91,0.00,,,0.00,0,WeatherCatV1.21B27,2013-10-04 11:45:00,
2013-10-04 06:46:00,64.5,61.8,29.61,ESE,113,3.0,4.0,91,0.00,,,0.00,0,WeatherCatV1.21B27,2013-10-04 11:46:00,
2013-10-04 06:47:00,64.5,61.8,29.61,ESE,102,10.0,10.0,91,0.00,,,0.00,0,WeatherCatV1.21B27,2013-10-04 11:47:00,
2013-10-04 06:49:00,64.6,61.6,29.61,ESE,105,3.0,9.0,90,0.00,,,0.00,0,WeatherCatV1.21B27,2013-10-04 11:49:00,
2013-10-04 06:50:00,64.6,61.6,29.61,ESE,107,3.0,9.0,90,0.00,,,0.00,0,WeatherCatV1.21B27,2013-10-04 11:50:00,
2013-10-04 06:51:00,64.6,61.6,29.61,ESE,106,2.0,4.0,90,0.00,,,0.00,0,WeatherCatV1.21B27,2013-10-04 11:51:00,
2013-10-04 06:52:00,64.6,61.6,29.61,ESE,107,1.0,4.0,90,0.00,,,0.00,0,WeatherCatV1.21B27,2013-10-04 11:52:00,
2013-10-04 06:55:00,64.6,61.6,29.61,SE,141,6.0,14.0,90,0.00,,,0.00,0,WeatherCatV1.21B27,2013-10-04 11:55:00,
2013-10-04 06:56:00,64.6,61.6,29.61,SE,128,0.0,14.0,90,0.00,,,0.00,0,WeatherCatV1.21B27,2013-10-04 11:56:00,
2013-10-04 06:57:00,64.6,61.6,29.61,SE,128,3.0,4.0,90,0.00,,,0.00,0,WeatherCatV1.21B27,2013-10-04 11:57:00,
2013-10-04 07:00:00,64.5,61.5,29.60,ESE,103,3.0,9.0,90,0.00,,,0.00,0,WeatherCatV1.21B27,2013-10-04 12:00:00,
2013-10-04 07:01:00,64.5,61.5,29.60,East,88,3.0,17.0,90,0.00,,,0.00,0,WeatherCatV1.21B27,2013-10-04 12:01:00,
2013-10-04 07:02:00,64.5,61.5,29.60,East,88,3.0,17.0,90,0.00,,,0.00,0,WeatherCatV1.21B27,2013-10-04 12:02:00,
2013-10-04 07:03:00,64.5,61.5,29.60,East,88,4.0,7.0,90,0.00,,,0.00,0,WeatherCatV1.21B27,2013-10-04 12:03:00,
2013-10-04 07:05:00,64.4,61.4,29.60,East,91,5.0,19.0,90,0.00,,,0.00,0,WeatherCatV1.21B27,2013-10-04 12:05:00,
2013-10-04 07:06:00,64.4,61.4,29.60,ESE,102,9.0,19.0,90,0.00,,,0.00,0,WeatherCatV1.21B27,2013-10-04 12:06:00,
2013-10-04 07:07:00,64.4,61.4,29.60,ESE,103,4.0,9.0,90,0.00,,,0.00,0,WeatherCatV1.21B27,2013-10-04 12:07:00,
2013-10-04 07:08:00,64.3,61.3,29.60,ESE,115,2.0,10.0,90,0.00,,,0.00,0,WeatherCatV1.21B27,2013-10-04 12:08:00,
2013-10-04 07:10:00,64.3,61.3,29.60,ESE,111,4.0,9.0,90,0.00,,,0.00,0,WeatherCatV1.21B27,2013-10-04 12:10:00,
2013-10-04 07:12:00,64.2,61.2,29.60,SE,127,3.0,9.0,90,0.00,,,0.00,0,WeatherCatV1.21B27,2013-10-04 12:12:00,
2013-10-04 07:13:00,64.2,61.2,29.60,ESE,121,1.0,9.0,90,0.00,,,0.00,0,WeatherCatV1.21B27,2013-10-04 12:13:00,
2013-10-04 07:15:00,64.1,61.1,29.60,SE,128,0.0,12.0,90,0.00,,,0.00,0,WeatherCatV1.21B27,2013-10-04 12:15:00,
2013-10-04 07:17:00,64.1,61.1,29.60,ESE,114,5.0,13.0,90,0.00,,,0.00,0,WeatherCatV1.21B27,2013-10-04 12:17:00,
2013-10-04 07:18:00,64.1,61.1,29.60,ESE,114,0.0,13.0,90,0.00,,,0.00,0,WeatherCatV1.21B27,2013-10-04 12:18:00,
2013-10-04 07:20:00,64.1,61.1,29.60,ESE,114,0.0,3.0,90,0.00,,,0.00,0,WeatherCatV1.21B27,2013-10-04 12:20:00,
2013-10-04 07:22:00,64.0,61.0,29.59,ESE,115,1.0,9.0,90,0.00,,,0.00,0,WeatherCatV1.21B27,2013-10-04 12:22:00,
2013-10-04 07:23:00,64.0,61.0,29.60,ESE,115,0.0,3.0,90,0.00,,,0.00,0,WeatherCatV1.21B27,2013-10-04 12:23:00,
2013-10-04 07:25:00,64.0,61.0,29.59,East,99,3.0,7.0,90,0.00,,,0.00,0,WeatherCatV1.21B27,2013-10-04 12:25:00,
2013-10-04 07:27:00,64.0,61.0,29.59,ESE,114,5.0,11.0,90,0.00,,,0.00,0,WeatherCatV1.21B27,2013-10-04 12:27:00,
2013-10-04 07:28:00,64.0,60.7,29.59,ESE,111,12.0,13.0,89,0.00,,,0.00,0,WeatherCatV1.21B27,2013-10-04 12:28:00,
2013-10-04 07:29:00,63.9,60.6,29.59,ESE,119,5.0,13.0,89,0.00,,,0.00,0,WeatherCatV1.21B27,2013-10-04 12:29:00,
2013-10-04 07:30:00,63.9,60.6,29.59,SE,134,0.0,7.0,89,0.00,,,0.00,0,WeatherCatV1.21B27,2013-10-04 12:30:00,
2013-10-04 07:32:00,63.9,60.6,29.59,ESE,119,5.0,15.0,89,0.00,,,0.00,0,WeatherCatV1.21B27,2013-10-04 12:32:00,
2013-10-04 07:33:00,63.9,60.6,29.59,ESE,109,9.0,17.0,89,0.00,,,0.00,0,WeatherCatV1.21B27,2013-10-04 12:33:00,
2013-10-04 07:34:00,63.9,60.9,29.59,ESE,109,3.0,17.0,90,0.00,,,0.00,0,WeatherCatV1.21B27,2013-10-04 12:34:00,
2013-10-04 07:35:00,63.9,60.9,29.59,East,93,4.0,10.0,90,0.00,,,0.00,0,WeatherCatV1.21B27,2013-10-04 12:35:00,
2013-10-04 07:38:00,63.9,60.6,29.59,ESE,117,10.0,18.0,89,0.00,,,0.00,0,WeatherCatV1.21B27,2013-10-04 12:38:00,
2013-10-04 07:39:00,63.9,60.6,29.59,East,87,5.0,18.0,89,0.00,,,0.00,0,WeatherCatV1.21B27,2013-10-04 12:39:00,
2013-10-04 07:40:00,63.8,60.5,29.59,ESE,119,5.0,9.0,89,0.00,,,0.00,0,WeatherCatV1.21B27,2013-10-04 12:40:00,
2013-10-04 07:43:00,63.8,60.5,29.59,SE,144,1.0,7.0,89,0.00,,,0.00,0,WeatherCatV1.21B27,2013-10-04 12:43:00,
2013-10-04 07:44:00,63.8,60.5,29.59,ESE,121,11.0,11.0,89,0.00,,,0.00,0,WeatherCatV1.21B27,2013-10-04 12:44:00,
2013-10-04 07:45:00,63.8,60.5,29.59,ESE,119,4.0,11.0,89,0.00,,,0.00,0,WeatherCatV1.21B27,2013-10-04 12:45:00,
2013-10-04 07:46:00,63.8,60.8,29.59,SE,128,0.0,12.0,90,0.00,,,0.00,0,WeatherCatV1.21B27,2013-10-04 12:46:00,
2013-10-04 07:49:00,63.8,60.8,29.59,ESE,118,5.0,7.0,90,0.00,,,0.00,0,WeatherCatV1.21B27,2013-10-04 12:49:00,
2013-10-04 07:50:00,63.8,60.8,29.59,ESE,118,0.0,8.0,90,0.00,,,0.00,0,WeatherCatV1.21B27,2013-10-04 12:50:00,
2013-10-04 07:51:00,63.8,60.8,29.59,ESE,118,1.0,8.0,90,0.00,,,0.00,5,WeatherCatV1.21B27,2013-10-04 12:51:00,
2013-10-04 07:54:00,63.9,60.9,29.59,ESE,122,3.0,9.0,90,0.00,,,0.00,5,WeatherCatV1.21B27,2013-10-04 12:54:00,
2013-10-04 07:55:00,63.9,60.9,29.59,ESE,111,9.0,12.0,90,0.00,,,0.00,5,WeatherCatV1.21B27,2013-10-04 12:55:00,
2013-10-04 07:56:00,63.9,60.9,29.59,ESE,107,9.0,13.0,90,0.00,,,0.00,5,WeatherCatV1.21B27,2013-10-04 12:56:00,
2013-10-04 07:59:00,64.0,61.0,29.59,ESE,117,1.0,7.0,90,0.00,,,0.00,7,WeatherCatV1.21B27,2013-10-04 12:59:00,
2013-10-04 08:00:00,64.0,61.6,29.59,ESE,117,2.0,5.0,92,0.00,,,0.00,7,WeatherCatV1.21B27,2013-10-04 13:00:00,
2013-10-04 08:01:00,64.1,61.1,29.58,ESE,117,3.0,6.0,90,0.00,,,0.00,7,WeatherCatV1.21B27,2013-10-04 13:01:00,
2013-10-04 08:04:00,64.1,61.4,29.59,ESE,117,0.0,9.0,91,0.00,,,0.00,7,WeatherCatV1.21B27,2013-10-04 13:04:00,
2013-10-04 08:05:00,64.1,61.4,29.59,ESE,117,4.0,9.0,91,0.00,,,0.00,7,WeatherCatV1.21B27,2013-10-04 13:05:00,
2013-10-04 08:06:00,64.1,61.4,29.59,ESE,117,3.0,3.0,91,0.00,,,0.00,9,WeatherCatV1.21B27,2013-10-04 13:06:00,
2013-10-04 08:07:00,64.2,61.5,29.59,ESE,117,5.0,5.0,91,0.00,,,0.00,9,WeatherCatV1.21B27,2013-10-04 13:07:00,
2013-10-04 08:09:00,64.4,61.7,29.58,ESE,123,4.0,11.0,91,0.00,,,0.00,14,WeatherCatV1.21B27,2013-10-04 13:09:00,
2013-10-04 08:10:00,64.5,61.8,29.58,ESE,114,10.0,11.0,91,0.00,,,0.00,16,WeatherCatV1.21B27,2013-10-04 13:10:00,
2013-10-04 08:11:00,64.7,62.0,29.58,ENE,74,2.0,10.0,91,0.00,,,0.00,16,WeatherCatV1.21B27,2013-10-04 13:11:00,
2013-10-04 08:12:00,64.7,62.0,29.58,East,91,6.0,6.0,91,0.00,,,0.00,18,WeatherCatV1.21B27,2013-10-04 13:12:00,
2013-10-04 08:14:00,64.8,62.1,29.58,East,96,7.0,17.0,91,0.00,,,0.00,18,WeatherCatV1.21B27,2013-10-04 13:14:00,
2013-10-04 08:15:00,64.9,62.2,29.58,ESE,117,5.0,15.0,91,0.00,,,0.00,19,WeatherCatV1.21B27,2013-10-04 13:15:00,
2013-10-04 08:16:00,64.9,62.2,29.59,ESE,105,3.0,16.0,91,0.00,,,0.00,25,WeatherCatV1.21B27,2013-10-04 13:16:00,
2013-10-04 08:17:00,64.9,62.2,29.58,ESE,119,5.0,16.0,91,0.00,,,0.00,26,WeatherCatV1.21B27,2013-10-04 13:17:00,
2013-10-04 08:18:00,64.9,62.2,29.58,ESE,114,12.0,16.0,91,0.00,,,0.00,26,WeatherCatV1.21B27,2013-10-04 13:18:00,
2013-10-04 08:19:00,64.9,62.2,29.58,SE,129,5.0,14.0,91,0.00,,,0.00,25,WeatherCatV1.21B27,2013-10-04 13:19:00,
2013-10-04 08:20:00,64.9,62.2,29.59,SE,125,12.0,14.0,91,0.00,,,0.00,25,WeatherCatV1.21B27,2013-10-04 13:20:00,
2013-10-04 08:22:00,64.9,62.2,29.59,East,95,14.0,16.0,91,0.00,,,0.00,19,WeatherCatV1.21B27,2013-10-04 13:22:00,
2013-10-04 08:23:00,64.9,62.2,29.59,SSE,152,4.0,14.0,91,0.00,,,0.00,19,WeatherCatV1.21B27,2013-10-04 13:23:00,
2013-10-04 08:24:00,64.9,62.2,29.59,SSE,152,4.0,9.0,91,0.00,,,0.00,23,WeatherCatV1.21B27,2013-10-04 13:24:00,
2013-10-04 08:26:00,64.9,62.2,29.58,ESE,108,7.0,12.0,91,0.00,,,0.00,32,WeatherCatV1.21B27,2013-10-04 13:26:00,
2013-10-04 08:27:00,64.9,62.2,29.58,ESE,117,4.0,12.0,91,0.00,,,0.00,30,WeatherCatV1.21B27,2013-10-04 13:27:00,
2013-10-04 08:29:00,64.8,62.1,29.59,ESE,121,6.0,11.0,91,0.00,,,0.00,32,WeatherCatV1.21B27,2013-10-04 13:29:00,
2013-10-04 08:30:00,64.8,62.1,29.59,ESE,117,7.0,11.0,91,0.00,,,0.00,40,WeatherCatV1.21B27,2013-10-04 13:30:00,
2013-10-04 08:31:00,64.8,62.1,29.59,ESE,119,8.0,11.0,91,0.00,,,0.00,40,WeatherCatV1.21B27,2013-10-04 13:31:00,
2013-10-04 08:32:00,64.8,62.1,29.59,ESE,119,3.0,12.0,91,0.00,,,0.00,37,WeatherCatV1.21B27,2013-10-04 13:32:00,
2013-10-04 08:33:00,64.8,61.8,29.59,ESE,118,1.0,12.0,90,0.00,,,0.00,37,WeatherCatV1.21B27,2013-10-04 13:33:00,
2013-10-04 08:34:00,64.8,61.8,29.59,ESE,120,2.0,7.0,90,0.00,,,0.00,35,WeatherCatV1.21B27,2013-10-04 13:34:00,
2013-10-04 08:35:00,64.8,61.8,29.59,ESE,121,3.0,7.0,90,0.00,,,0.00,35,WeatherCatV1.21B27,2013-10-04 13:35:00,
2013-10-04 08:36:00,64.7,61.7,29.59,ESE,109,3.0,10.0,90,0.00,,,0.00,33,WeatherCatV1.21B27,2013-10-04 13:36:00,
2013-10-04 08:37:00,64.7,61.7,29.59,SE,126,4.0,10.0,90,0.00,,,0.00,35,WeatherCatV1.21B27,2013-10-04 13:37:00,
2013-10-04 08:38:00,64.7,61.7,29.59,ESE,115,0.0,7.0,90,0.00,,,0.00,35,WeatherCatV1.21B27,2013-10-04 13:38:00,
2013-10-04 08:39:00,64.7,62.3,29.59,SE,126,5.0,10.0,92,0.00,,,0.00,44,WeatherCatV1.21B27,2013-10-04 13:39:00,
2013-10-04 08:40:00,64.8,61.8,29.59,SE,126,0.0,10.0,90,0.00,,,0.00,40,WeatherCatV1.21B27,2013-10-04 13:40:00,
2013-10-04 08:41:00,64.7,62.3,29.59,SE,126,0.0,4.0,92,0.00,,,0.00,40,WeatherCatV1.21B27,2013-10-04 13:41:00,
2013-10-04 08:42:00,64.8,61.8,29.59,SE,126,3.0,4.0,90,0.00,,,0.00,46,WeatherCatV1.21B27,2013-10-04 13:42:00,
2013-10-04 08:43:00,64.8,62.4,29.59,ESE,122,8.0,8.0,92,0.00,,,0.00,56,WeatherCatV1.21B27,2013-10-04 13:43:00,
2013-10-04 08:45:00,64.8,62.1,29.59,ESE,108,4.0,12.0,91,0.00,,,0.00,58,WeatherCatV1.21B27,2013-10-04 13:45:00,
2013-10-04 08:46:00,64.8,62.1,29.58,ESE,119,16.0,16.0,91,0.00,,,0.00,54,WeatherCatV1.21B27,2013-10-04 13:46:00,
2013-10-04 08:47:00,64.8,62.1,29.59,ESE,123,12.0,16.0,91,0.00,,,0.00,51,WeatherCatV1.21B27,2013-10-04 13:47:00,
2013-10-04 08:48:00,64.8,62.1,29.59,ESE,114,6.0,16.0,91,0.00,,,0.00,42,WeatherCatV1.21B27,2013-10-04 13:48:00,
2013-10-04 08:50:00,64.8,61.8,29.59,ESE,115,4.0,11.0,90,0.00,,,0.00,35,WeatherCatV1.21B27,2013-10-04 13:50:00,
2013-10-04 08:51:00,64.7,61.7,29.59,SE,145,1.0,9.0,90,0.00,,,0.00,26,WeatherCatV1.21B27,2013-10-04 13:51:00,
2013-10-04 08:52:00,64.8,62.1,29.59,SE,140,2.0,9.0,91,0.00,,,0.00,25,WeatherCatV1.21B27,2013-10-04 13:52:00,
2013-10-04 08:53:00,64.8,62.1,29.58,SE,140,1.0,6.0,91,0.00,,,0.00,19,WeatherCatV1.21B27,2013-10-04 13:53:00,
2013-10-04 08:55:00,64.7,62.0,29.58,SE,142,3.0,4.0,91,0.00,,,0.00,25,WeatherCatV1.21B27,2013-10-04 13:55:00,
2013-10-04 08:56:00,64.7,62.0,29.58,SE,142,1.0,4.0,91,0.00,,,0.00,30,WeatherCatV1.21B27,2013-10-04 13:56:00,
2013-10-04 08:57:00,64.7,61.7,29.58,SE,144,3.0,4.0,90,0.00,,,0.00,74,WeatherCatV1.21B27,2013-10-04 13:57:00,
2013-10-04 08:58:00,64.7,61.7,29.58,SE,144,4.0,4.0,90,0.00,,,0.00,63,WeatherCatV1.21B27,2013-10-04 13:58:00,
2013-10-04 08:59:00,64.7,61.7,29.58,SE,145,2.0,5.0,90,0.00,,,0.00,46,WeatherCatV1.21B27,2013-10-04 13:59:00,
2013-10-04 09:00:00,64.7,61.7,29.58,ESE,117,3.0,10.0,90,0.00,,,0.00,58,WeatherCatV1.21B27,2013-10-04 14:00:00,
2013-10-04 09:01:00,64.7,61.7,29.58,ESE,115,3.0,10.0,90,0.00,,,0.00,58,WeatherCatV1.21B27,2013-10-04 14:01:00,
2013-10-04 09:02:00,64.7,61.7,29.58,East,99,6.0,10.0,90,0.00,,,0.00,44,WeatherCatV1.21B27,2013-10-04 14:02:00,
2013-10-04 09:03:00,64.7,61.7,29.58,ESE,119,6.0,12.0,90,0.00,,,0.00,84,WeatherCatV1.21B27,2013-10-04 14:03:00,
2013-10-04 09:04:00,64.8,61.8,29.58,ESE,108,13.0,13.0,90,0.00,,,0.00,84,WeatherCatV1.21B27,2013-10-04 14:04:00,
2013-10-04 09:06:00,64.8,62.4,29.58,ESE,111,1.0,5.0,92,0.00,,,0.00,86,WeatherCatV1.21B27,2013-10-04 14:06:00,
2013-10-04 09:07:00,64.8,62.4,29.58,ESE,112,3.0,7.0,92,0.00,,,0.00,60,WeatherCatV1.21B27,2013-10-04 14:07:00,
2013-10-04 09:08:00,64.8,62.1,29.58,ESE,119,6.0,9.0,91,0.00,,,0.00,74,WeatherCatV1.21B27,2013-10-04 14:08:00,
2013-10-04 09:09:00,64.8,62.1,29.58,ESE,118,2.0,9.0,91,0.00,,,0.00,72,WeatherCatV1.21B27,2013-10-04 14:09:00,
2013-10-04 09:11:00,64.8,62.1,29.58,ESE,115,0.0,4.0,91,0.00,,,0.00,76,WeatherCatV1.21B27,2013-10-04 14:11:00,
2013-10-04 09:12:00,64.8,62.1,29.58,ESE,116,1.0,5.0,91,0.00,,,0.00,90,WeatherCatV1.21B27,2013-10-04 14:12:00,
2013-10-04 09:13:00,64.9,62.2,29.58,SE,141,2.0,5.0,91,0.00,,,0.00,60,WeatherCatV1.21B27,2013-10-04 14:13:00,
2013-10-04 09:14:00,64.9,62.2,29.59,SE,132,9.0,9.0,91,0.00,,,0.00,67,WeatherCatV1.21B27,2013-10-04 14:14:00,
2013-10-04 09:16:00,65.0,62.3,29.58,SE,132,2.0,9.0,91,0.00,,,0.00,111,WeatherCatV1.21B27,2013-10-04 14:16:00,
2013-10-04 09:17:00,65.0,62.3,29.58,SE,132,2.0,4.0,91,0.00,,,0.00,111,WeatherCatV1.21B27,2013-10-04 14:17:00,
2013-10-04 09:18:00,65.1,62.4,29.58,ESE,111,9.0,12.0,91,0.00,,,0.00,132,WeatherCatV1.21B27,2013-10-04 14:18:00,
2013-10-04 09:19:00,65.1,62.4,29.58,ESE,122,7.0,12.0,91,0.00,,,0.00,107,WeatherCatV1.21B27,2013-10-04 14:19:00,
2013-10-04 09:21:00,65.2,62.5,29.58,ESE,109,11.0,13.0,91,0.00,,,0.00,97,WeatherCatV1.21B27,2013-10-04 14:21:00,
2013-10-04 09:22:00,65.3,62.6,29.58,ESE,111,4.0,15.0,91,0.00,,,0.00,86,WeatherCatV1.21B27,2013-10-04 14:22:00,
2013-10-04 09:24:00,65.3,62.6,29.58,SE,128,3.0,9.0,91,0.00,,,0.00,141,WeatherCatV1.21B27,2013-10-04 14:24:00,
2013-10-04 09:25:00,65.4,62.7,29.58,SE,129,5.0,7.0,91,0.00,,,0.00,188,WeatherCatV1.21B27,2013-10-04 14:25:00,
2013-10-04 09:27:00,65.6,62.9,29.58,ESE,123,7.0,12.0,91,0.00,,,0.00,172,WeatherCatV1.21B27,2013-10-04 14:27:00,
2013-10-04 09:28:00,65.6,62.9,29.58,ESE,109,2.0,11.0,91,0.00,,,0.00,132,WeatherCatV1.21B27,2013-10-04 14:28:00,
2013-10-04 09:29:00,65.7,63.0,29.58,ESE,109,2.0,7.0,91,0.00,,,0.00,120,WeatherCatV1.21B27,2013-10-04 14:29:00,
2013-10-04 09:30:00,65.8,63.1,29.58,East,96,3.0,10.0,91,0.00,,,0.00,116,WeatherCatV1.21B27,2013-10-04 14:30:00,
2013-10-04 09:31:00,65.8,62.8,29.58,SE,143,7.0,10.0,90,0.00,,,0.00,116,WeatherCatV1.21B27,2013-10-04 14:31:00,
2013-10-04 09:32:00,65.8,62.8,29.59,ESE,114,4.0,10.0,90,0.00,,,0.00,97,WeatherCatV1.21B27,2013-10-04 14:32:00,
2013-10-04 09:33:00,65.9,62.9,29.58,East,98,5.0,9.0,90,0.00,,,0.00,100,WeatherCatV1.21B27,2013-10-04 14:33:00,
2013-10-04 09:34:00,65.9,62.9,29.59,ESE,114,13.0,13.0,90,0.00,,,0.00,102,WeatherCatV1.21B27,2013-10-04 14:34:00,
2013-10-04 09:35:00,65.8,62.8,29.58,SE,125,7.0,13.0,90,0.00,,,0.00,100,WeatherCatV1.21B27,2013-10-04 14:35:00,
2013-10-04 09:36:00,65.8,62.8,29.58,East,94,8.0,12.0,90,0.00,,,0.00,113,WeatherCatV1.21B27,2013-10-04 14:36:00,
2013-10-04 09:37:00,65.8,62.8,29.58,ESE,122,3.0,9.0,90,0.00,,,0.00,111,WeatherCatV1.21B27,2013-10-04 14:37:00,
2013-10-04 09:38:00,65.9,62.9,29.58,ESE,107,10.0,12.0,90,0.00,,,0.00,125,WeatherCatV1.21B27,2013-10-04 14:38:00,
2013-10-04 09:39:00,65.8,62.8,29.58,East,86,6.0,14.0,90,0.00,,,0.00,116,WeatherCatV1.21B27,2013-10-04 14:39:00,
2013-10-04 09:41:00,65.8,62.8,29.58,SE,127,8.0,10.0,90,0.00,,,0.00,134,WeatherCatV1.21B27,2013-10-04 14:41:00,
2013-10-04 09:42:00,65.9,62.9,29.58,East,101,15.0,15.0,90,0.00,,,0.00,123,WeatherCatV1.21B27,2013-10-04 14:42:00,
2013-10-04 09:43:00,65.9,62.9,29.58,ESE,111,6.0,15.0,90,0.00,,,0.00,100,WeatherCatV1.21B27,2013-10-04 14:43:00,
2013-10-04 09:44:00,65.9,62.9,29.58,ESE,111,2.0,15.0,90,0.00,,,0.00,100,WeatherCatV1.21B27,2013-10-04 14:44:00,
2013-10-04 09:46:00,65.9,62.9,29.58,ESE,123,6.0,12.0,90,0.00,,,0.00,111,WeatherCatV1.21B27,2013-10-04 14:46:00,
2013-10-04 09:47:00,65.9,62.9,29.58,East,97,5.0,10.0,90,0.00,,,0.00,111,WeatherCatV1.21B27,2013-10-04 14:47:00,
2013-10-04 09:48:00,65.9,62.9,29.58,SE,128,2.0,9.0,90,0.00,,,0.00,91,WeatherCatV1.21B27,2013-10-04 14:48:00,
2013-10-04 09:49:00,65.9,62.9,29.58,SE,128,4.0,9.0,90,0.00,,,0.00,91,WeatherCatV1.21B27,2013-10-04 14:49:00,
2013-10-04 09:52:00,66.0,63.0,29.58,ESE,112,10.0,13.0,90,0.00,,,0.00,104,WeatherCatV1.21B27,2013-10-04 14:52:00,
2013-10-04 09:54:00,66.1,63.1,29.57,ESE,113,5.0,11.0,90,0.00,,,0.00,137,WeatherCatV1.21B27,2013-10-04 14:54:00,
2013-10-04 09:57:00,66.3,63.3,29.58,ESE,113,4.0,15.0,90,0.00,,,0.00,81,WeatherCatV1.21B27,2013-10-04 14:57:00,
2013-10-04 09:58:00,66.3,63.3,29.58,ESE,110,0.0,10.0,90,0.00,,,0.00,67,WeatherCatV1.21B27,2013-10-04 14:58:00,
2013-10-04 09:59:00,66.2,63.2,29.58,ESE,110,0.0,2.0,90,0.00,,,0.00,56,WeatherCatV1.21B27,2013-10-04 14:59:00,
2013-10-04 10:02:00,66.3,63.3,29.58,SE,126,4.0,5.0,90,0.00,,,0.00,91,WeatherCatV1.21B27,2013-10-04 15:02:00,
2013-10-04 10:03:00,66.3,63.3,29.58,SE,128,4.0,8.0,90,0.00,,,0.00,91,WeatherCatV1.21B27,2013-10-04 15:03:00,
2013-10-04 10:04:00,66.3,63.3,29.58,SE,127,4.0,10.0,90,0.00,,,0.00,109,WeatherCatV1.21B27,2013-10-04 15:04:00,
2013-10-04 10:05:00,66.3,63.3,29.58,SE,132,6.0,10.0,90,0.00,,,0.00,144,WeatherCatV1.21B27,2013-10-04 15:05:00,
2013-10-04 10:07:00,66.3,63.3,29.58,ESE,123,11.0,13.0,90,0.00,,,0.00,183,WeatherCatV1.21B27,2013-10-04 15:07:00,
2013-10-04 10:08:00,66.4,63.4,29.58,SE,129,9.0,12.0,90,0.00,,,0.00,183,WeatherCatV1.21B27,2013-10-04 15:08:00,
2013-10-04 10:09:00,66.5,63.5,29.58,SE,129,0.0,10.0,90,0.00,,,0.00,169,WeatherCatV1.21B27,2013-10-04 15:09:00,
2013-10-04 10:10:00,66.5,63.5,29.58,ESE,119,0.0,10.0,90,0.00,,,0.00,169,WeatherCatV1.21B27,2013-10-04 15:10:00,
2013-10-04 10:12:00,66.7,63.7,29.58,East,98,2.0,4.0,90,0.00,,,0.00,156,WeatherCatV1.21B27,2013-10-04 15:12:00,
2013-10-04 10:13:00,66.7,63.7,29.58,East,99,3.0,4.0,90,0.00,,,0.00,162,WeatherCatV1.21B27,2013-10-04 15:13:00,
2013-10-04 10:15:00,66.8,63.8,29.58,ESE,109,4.0,5.0,90,0.00,,,0.00,176,WeatherCatV1.21B27,2013-10-04 15:15:00,
2013-10-04 10:17:00,67.0,64.0,29.58,ESE,109,4.0,6.0,90,0.00,,,0.00,195,WeatherCatV1.21B27,2013-10-04 15:17:00,
2013-10-04 10:18:00,67.1,64.1,29.58,ESE,115,3.0,6.0,90,0.00,,,0.00,160,WeatherCatV1.21B27,2013-10-04 15:18:00,
2013-10-04 10:20:00,67.2,63.8,29.58,East,101,1.0,12.0,89,0.00,,,0.00,160,WeatherCatV1.21B27,2013-10-04 15:20:00,
2013-10-04 10:22:00,67.4,64.0,29.57,ESE,119,4.0,11.0,89,0.00,,,0.00,185,WeatherCatV1.21B27,2013-10-04 15:22:00,
2013-10-04 10:23:00,67.4,64.0,29.57,ESE,121,3.0,12.0,89,0.00,,,0.00,185,WeatherCatV1.21B27,2013-10-04 15:23:00,
2013-10-04 10:24:00,67.5,64.1,29.57,ESE,107,1.0,12.0,89,0.00,,,0.00,227,WeatherCatV1.21B27,2013-10-04 15:24:00,
2013-10-04 10:25:00,67.6,64.2,29.57,ESE,111,5.0,11.0,89,0.00,,,0.00,239,WeatherCatV1.21B27,2013-10-04 15:25:00,
2013-10-04 10:28:00,67.7,64.0,29.57,ESE,111,3.0,11.0,88,0.00,,,0.00,236,WeatherCatV1.21B27,2013-10-04 15:28:00,
2013-10-04 10:29:00,67.7,64.0,29.58,ESE,111,6.0,9.0,88,0.00,,,0.00,207,WeatherCatV1.21B27,2013-10-04 15:29:00,
2013-10-04 10:30:00,67.7,64.0,29.58,ESE,120,12.0,13.0,88,0.00,,,0.00,207,WeatherCatV1.21B27,2013-10-04 15:30:00,
2013-10-04 10:33:00,67.7,64.0,29.57,ESE,118,6.0,11.0,88,0.00,,,0.00,248,WeatherCatV1.21B27,2013-10-04 15:33:00,
2013-10-04 10:34:00,67.7,64.0,29.57,ESE,115,4.0,11.0,88,0.00,,,0.00,209,WeatherCatV1.21B27,2013-10-04 15:34:00,
2013-10-04 10:35:00,67.8,64.1,29.57,ESE,116,4.0,6.0,88,0.00,,,0.00,206,WeatherCatV1.21B27,2013-10-04 15:35:00,
2013-10-04 10:38:00,67.9,64.2,29.57,SE,134,4.0,15.0,88,0.00,,,0.00,179,WeatherCatV1.21B27,2013-10-04 15:38:00,
2013-10-04 10:39:00,67.9,64.2,29.57,ESE,111,10.0,15.0,88,0.00,,,0.00,179,WeatherCatV1.21B27,2013-10-04 15:39:00,
2013-10-04 10:40:00,68.0,64.6,29.57,SE,132,5.0,10.0,89,0.00,,,0.00,146,WeatherCatV1.21B27,2013-10-04 15:40:00,
2013-10-04 10:42:00,68.1,64.4,29.58,ESE,107,10.0,12.0,88,0.00,,,0.00,163,WeatherCatV1.21B27,2013-10-04 15:42:00,
2013-10-04 10:43:00,68.2,64.5,29.58,ESE,105,3.0,12.0,88,0.00,,,0.00,132,WeatherCatV1.21B27,2013-10-04 15:43:00,
2013-10-04 10:44:00,68.2,64.5,29.57,ESE,122,2.0,11.0,88,0.00,,,0.00,132,WeatherCatV1.21B27,2013-10-04 15:44:00,
2013-10-04 10:45:00,68.3,64.6,29.58,ESE,121,5.0,6.0,88,0.00,,,0.00,121,WeatherCatV1.21B27,2013-10-04 15:45:00,
2013-10-04 10:47:00,68.2,64.5,29.57,SSE,167,12.0,12.0,88,0.00,,,0.00,137,WeatherCatV1.21B27,2013-10-04 15:47:00,
2013-10-04 10:48:00,68.2,64.5,29.57,ESE,116,3.0,12.0,88,0.00,,,0.00,176,WeatherCatV1.21B27,2013-10-04 15:48:00,
2013-10-04 10:49:00,68.2,64.5,29.57,ESE,115,4.0,5.0,88,0.00,,,0.00,174,WeatherCatV1.21B27,2013-10-04 15:49:00,
2013-10-04 10:50:00,68.2,64.5,29.57,ESE,120,9.0,13.0,88,0.00,,,0.00,151,WeatherCatV1.21B27,2013-10-04 15:50:00,
2013-10-04 10:51:00,68.2,64.5,29.57,ESE,121,2.0,13.0,88,0.00,,,0.00,151,WeatherCatV1.21B27,2013-10-04 15:51:00,
2013-10-04 10:52:00,68.1,64.4,29.57,SE,143,4.0,13.0,88,0.00,,,0.00,144,WeatherCatV1.21B27,2013-10-04 15:52:00,
2013-10-04 10:53:00,68.1,64.4,29.57,SSE,167,11.0,14.0,88,0.00,,,0.00,141,WeatherCatV1.21B27,2013-10-04 15:53:00,
2013-10-04 10:54:00,68.2,64.5,29.57,SSE,149,9.0,14.0,88,0.00,,,0.00,146,WeatherCatV1.21B27,2013-10-04 15:54:00,
2013-10-04 10:55:00,68.2,64.5,29.57,SSE,156,2.0,14.0,88,0.00,,,0.00,178,WeatherCatV1.21B27,2013-10-04 15:55:00,
2013-10-04 10:56:00,68.2,64.5,29.57,SE,140,5.0,9.0,88,0.00,,,0.00,178,WeatherCatV1.21B27,2013-10-04 15:56:00,
2013-10-04 10:57:00,68.3,64.6,29.57,East,98,5.0,11.0,88,0.00,,,0.00,207,WeatherCatV1.21B27,2013-10-04 15:57:00,
2013-10-04 10:58:00,68.4,64.7,29.57,SE,128,9.0,11.0,88,0.00,,,0.00,272,WeatherCatV1.21B27,2013-10-04 15:58:00,
2013-10-04 10:59:00,68.5,64.8,29.57,ESE,118,2.0,10.0,88,0.00,,,0.00,229,WeatherCatV1.21B27,2013-10-04 15:59:00,
2013-10-04 11:00:00,68.6,64.6,29.57,ESE,110,9.0,12.0,87,0.00,,,0.00,209,WeatherCatV1.21B27,2013-10-04 16:00:00,
2013-10-04 11:01:00,68.6,64.6,29.57,ESE,111,4.0,12.0,87,0.00,,,0.00,209,WeatherCatV1.21B27,2013-10-04 16:01:00,
2013-10-04 11:02:00,68.8,64.8,29.57,ESE,103,5.0,12.0,87,0.00,,,0.00,230,WeatherCatV1.21B27,2013-10-04 16:02:00,
2013-10-04 11:04:00,68.9,64.9,29.57,East,100,7.0,13.0,87,0.00,,,0.00,225,WeatherCatV1.21B27,2013-10-04 16:04:00,
2013-10-04 11:05:00,69.0,65.0,29.57,SE,128,6.0,13.0,87,0.00,,,0.00,195,WeatherCatV1.21B27,2013-10-04 16:05:00,
2013-10-04 11:06:00,69.0,65.0,29.56,SE,126,4.0,6.0,87,0.00,,,0.00,218,WeatherCatV1.21B27,2013-10-04 16:06:00,
2013-10-04 11:07:00,69.1,65.1,29.56,SE,125,3.0,9.0,87,0.00,,,0.00,192,WeatherCatV1.21B27,2013-10-04 16:07:00,
2013-10-04 11:09:00,69.1,65.1,29.56,ESE,115,5.0,10.0,87,0.00,,,0.00,142,WeatherCatV1.21B27,2013-10-04 16:09:00,
2013-10-04 11:10:00,69.1,64.7,29.56,ESE,107,5.0,14.0,86,0.00,,,0.00,214,WeatherCatV1.21B27,2013-10-04 16:10:00,
2013-10-04 11:11:00,69.1,64.7,29.56,ESE,107,3.0,14.0,86,0.00,,,0.00,214,WeatherCatV1.21B27,2013-10-04 16:11:00,
2013-10-04 11:12:00,69.1,64.7,29.56,SE,140,6.0,12.0,86,0.00,,,0.00,188,WeatherCatV1.21B27,2013-10-04 16:12:00,
2013-10-04 11:14:00,69.0,64.6,29.56,East,94,4.0,11.0,86,0.00,,,0.00,144,WeatherCatV1.21B27,2013-10-04 16:14:00,
2013-10-04 11:16:00,69.0,64.6,29.56,East,96,0.0,11.0,86,0.00,,,0.00,148,WeatherCatV1.21B27,2013-10-04 16:16:00,
2013-10-04 11:17:00,69.0,64.6,29.56,East,96,1.0,7.0,86,0.00,,,0.00,144,WeatherCatV1.21B27,2013-10-04 16:17:00,
2013-10-04 11:18:00,69.1,65.1,29.56,ESE,121,5.0,5.0,87,0.00,,,0.00,142,WeatherCatV1.21B27,2013-10-04 16:18:00,
2013-10-04 11:20:00,69.1,65.1,29.56,ESE,121,4.0,5.0,87,0.00,,,0.00,185,WeatherCatV1.21B27,2013-10-04 16:20:00,
2013-10-04 11:21:00,69.2,65.2,29.56,SE,130,0.0,5.0,87,0.00,,,0.00,227,WeatherCatV1.21B27,2013-10-04 16:21:00,
2013-10-04 11:22:00,69.2,65.2,29.56,SE,131,3.0,3.0,87,0.00,,,0.00,206,WeatherCatV1.21B27,2013-10-04 16:22:00,
2013-10-04 11:23:00,69.3,65.3,29.56,ESE,117,0.0,5.0,87,0.00,,,0.00,153,WeatherCatV1.21B27,2013-10-04 16:23:00,
2013-10-04 11:25:00,69.4,65.3,29.56,East,98,4.0,12.0,87,0.00,,,0.00,141,WeatherCatV1.21B27,2013-10-04 16:25:00,
2013-10-04 11:26:00,69.5,65.4,29.56,SE,144,6.0,12.0,87,0.00,,,0.00,135,WeatherCatV1.21B27,2013-10-04 16:26:00,
2013-10-04 11:27:00,69.6,65.6,29.56,SE,145,2.0,7.0,87,0.00,,,0.00,158,WeatherCatV1.21B27,2013-10-04 16:27:00,
2013-10-04 11:29:00,69.7,65.7,29.56,SE,132,4.0,6.0,87,0.00,,,0.00,211,WeatherCatV1.21B27,2013-10-04 16:29:00,
2013-10-04 11:30:00,69.8,65.8,29.56,SE,132,2.0,2.0,87,0.00,,,0.00,192,WeatherCatV1.21B27,2013-10-04 16:30:00,
2013-10-04 11:31:00,69.8,65.8,29.56,SE,132,1.0,2.0,87,0.00,,,0.00,211,WeatherCatV1.21B27,2013-10-04 16:31:00,
2013-10-04 11:32:00,70.0,65.9,29.56,SE,132,0.0,3.0,87,0.00,,,0.00,308,WeatherCatV1.21B27,2013-10-04 16:32:00,
2013-10-04 11:33:00,70.1,66.0,29.56,SE,132,3.0,3.0,87,0.00,,,0.00,308,WeatherCatV1.21B27,2013-10-04 16:33:00,
2013-10-04 11:34:00,70.2,66.1,29.56,SE,146,4.0,10.0,87,0.00,,,0.00,308,WeatherCatV1.21B27,2013-10-04 16:34:00,
2013-10-04 11:35:00,70.6,66.5,29.56,SE,142,3.0,12.0,87,0.00,,,0.00,308,WeatherCatV1.21B27,2013-10-04 16:35:00,
2013-10-04 11:36:00,70.8,66.4,29.56,SE,143,3.0,12.0,86,0.00,,,0.00,308,WeatherCatV1.21B27,2013-10-04 16:36:00,
2013-10-04 11:38:00,71.5,66.7,29.56,SE,137,5.0,7.0,85,0.00,,,0.00,329,WeatherCatV1.21B27,2013-10-04 16:38:00,
2013-10-04 11:39:00,71.9,66.8,29.55,SE,130,4.0,12.0,84,0.00,,,0.00,329,WeatherCatV1.21B27,2013-10-04 16:39:00,
2013-10-04 11:40:00,72.5,66.7,29.56,ESE,110,4.0,13.0,82,0.00,,,0.00,329,WeatherCatV1.21B27,2013-10-04 16:40:00,
2013-10-04 11:41:00,72.7,66.9,29.55,ESE,115,3.0,13.0,82,0.00,,,0.00,329,WeatherCatV1.21B27,2013-10-04 16:41:00,
2013-10-04 11:43:00,73.3,67.1,29.55,SE,130,2.0,9.0,81,0.00,,,0.00,329,WeatherCatV1.21B27,2013-10-04 16:43:00,
2013-10-04 11:44:00,73.5,66.6,29.55,ESE,113,6.0,14.0,79,0.00,,,0.00,253,WeatherCatV1.21B27,2013-10-04 16:44:00,
2013-10-04 11:45:00,73.5,66.2,29.55,SSW,197,6.0,14.0,78,0.00,,,0.00,269,WeatherCatV1.21B27,2013-10-04 16:45:00,
2013-10-04 11:46:00,73.6,66.3,29.55,SE,144,2.0,9.0,78,0.00,,,0.00,278,WeatherCatV1.21B27,2013-10-04 16:46:00,
2013-10-04 11:48:00,73.6,66.7,29.55,SE,128,6.0,7.0,79,0.00,,,0.00,327,WeatherCatV1.21B27,2013-10-04 16:48:00,
2013-10-04 11:49:00,73.7,66.8,29.55,ESE,123,4.0,11.0,79,0.00,,,0.00,267,WeatherCatV1.21B27,2013-10-04 16:49:00,
2013-10-04 11:51:00,73.8,66.9,29.55,ESE,111,3.0,14.0,79,0.00,,,0.00,267,WeatherCatV1.21B27,2013-10-04 16:51:00,
2013-10-04 11:53:00,74.1,67.2,29.54,ESE,109,6.0,10.0,79,0.00,,,0.00,267,WeatherCatV1.21B27,2013-10-04 16:53:00,
2013-10-04 11:54:00,74.2,66.5,29.55,SE,145,5.0,12.0,77,0.00,,,0.00,237,WeatherCatV1.21B27,2013-10-04 16:54:00,
2013-10-04 11:56:00,74.1,66.4,29.54,SE,142,4.0,12.0,77,0.00,,,0.00,355,WeatherCatV1.21B27,2013-10-04 16:56:00,
2013-10-04 11:58:00,74.1,66.8,29.54,SE,144,5.0,9.0,78,0.00,,,0.00,387,WeatherCatV1.21B27,2013-10-04 16:58:00,
2013-10-04 11:59:00,74.2,66.5,29.54,ESE,115,5.0,12.0,77,0.00,,,0.00,387,WeatherCatV1.21B27,2013-10-04 16:59:00,
2013-10-04 12:01:00,74.4,66.7,29.54,SSE,148,8.0,10.0,77,0.00,,,0.00,262,WeatherCatV1.21B27,2013-10-04 17:01:00,
2013-10-04 12:02:00,74.4,66.7,29.54,SSE,149,4.0,10.0,77,0.00,,,0.00,262,WeatherCatV1.21B27,2013-10-04 17:02:00,
2013-10-04 12:03:00,74.5,66.8,29.54,SSE,155,5.0,16.0,77,0.00,,,0.00,262,WeatherCatV1.21B27,2013-10-04 17:03:00,
2013-10-04 12:04:00,74.5,66.4,29.54,SE,133,7.0,16.0,76,0.00,,,0.00,262,WeatherCatV1.21B27,2013-10-04 17:04:00,
2013-10-04 12:05:00,74.6,66.5,29.54,ESE,111,7.0,13.0,76,0.00,,,0.00,262,WeatherCatV1.21B27,2013-10-04 17:05:00,
2013-10-04 12:06:00,74.6,66.5,29.54,SE,143,4.0,12.0,76,0.00,,,0.00,420,WeatherCatV1.21B27,2013-10-04 17:06:00,
2013-10-04 12:07:00,74.6,66.5,29.54,SSE,149,4.0,7.0,76,0.00,,,0.00,420,WeatherCatV1.21B27,2013-10-04 17:07:00,
2013-10-04 12:08:00,74.7,66.6,29.54,SE,146,1.0,10.0,76,0.00,,,0.00,345,WeatherCatV1.21B27,2013-10-04 17:08:00,
2013-10-04 12:10:00,74.6,66.5,29.54,SE,125,6.0,14.0,76,0.00,,,0.00,316,WeatherCatV1.21B27,2013-10-04 17:10:00,
2013-10-04 12:12:00,74.7,66.6,29.54,ESE,114,15.0,15.0,76,0.00,,,0.00,455,WeatherCatV1.21B27,2013-10-04 17:12:00,
2013-10-04 12:13:00,74.8,66.7,29.54,ESE,123,5.0,15.0,76,0.00,,,0.00,244,WeatherCatV1.21B27,2013-10-04 17:13:00,
2013-10-04 12:15:00,74.9,66.8,29.53,SE,132,5.0,13.0,76,0.00,,,0.00,947,WeatherCatV1.21B27,2013-10-04 17:15:00,
2013-10-04 12:17:00,75.3,67.2,29.53,ESE,114,11.0,11.0,76,0.00,,,0.00,947,WeatherCatV1.21B27,2013-10-04 17:17:00,
2013-10-04 12:18:00,75.4,66.5,29.53,ESE,118,10.0,16.0,74,0.00,,,0.00,431,WeatherCatV1.21B27,2013-10-04 17:18:00,
2013-10-04 12:20:00,75.6,66.7,29.53,SE,140,10.0,14.0,74,0.00,,,0.00,624,WeatherCatV1.21B27,2013-10-04 17:20:00,
2013-10-04 12:22:00,75.6,66.7,29.53,ESE,109,3.0,13.0,74,0.00,,,0.00,202,WeatherCatV1.21B27,2013-10-04 17:22:00,
2013-10-04 12:23:00,75.6,66.7,29.53,South,175,10.0,13.0,74,0.00,,,0.00,243,WeatherCatV1.21B27,2013-10-04 17:23:00,
2013-10-04 12:24:00,75.5,66.6,29.53,SE,140,7.0,12.0,74,0.00,,,0.00,257,WeatherCatV1.21B27,2013-10-04 17:24:00,
2013-10-04 12:25:00,75.4,66.9,29.53,SE,146,14.0,14.0,75,0.00,,,0.00,257,WeatherCatV1.21B27,2013-10-04 17:25:00,
2013-10-04 12:27:00,75.4,66.5,29.53,SE,133,3.0,19.0,74,0.00,,,0.00,246,WeatherCatV1.21B27,2013-10-04 17:27:00,
2013-10-04 12:29:00,75.4,66.5,29.53,SE,128,6.0,14.0,74,0.00,,,0.00,243,WeatherCatV1.21B27,2013-10-04 17:29:00,
2013-10-04 12:31:00,75.4,66.5,29.53,SW,221,5.0,8.0,74,0.00,,,0.00,329,WeatherCatV1.21B27,2013-10-04 17:31:00,
2013-10-04 12:32:00,75.5,66.6,29.54,SSW,195,6.0,10.0,74,0.00,,,0.00,315,WeatherCatV1.21B27,2013-10-04 17:32:00,
2013-10-04 12:33:00,75.5,66.6,29.54,ESE,113,6.0,10.0,74,0.00,,,0.00,315,WeatherCatV1.21B27,2013-10-04 17:33:00,
2013-10-04 12:34:00,75.6,66.7,29.54,ESE,122,1.0,6.0,74,0.00,,,0.00,246,WeatherCatV1.21B27,2013-10-04 17:34:00,
2013-10-04 12:36:00,75.9,67.0,29.54,SSW,209,1.0,11.0,74,0.00,,,0.00,246,WeatherCatV1.21B27,2013-10-04 17:36:00,
2013-10-04 12:37:00,76.2,67.3,29.54,SE,141,2.0,11.0,74,0.00,,,0.00,896,WeatherCatV1.21B27,2013-10-04 17:37:00,
2013-10-04 12:58:00,76.2,65.3,29.54,SW,225,14.0,18.0,69,0.00,,,0.00,197,WeatherCatV1.21B27,2013-10-04 17:58:00,
2013-10-04 12:59:00,76.2,65.3,29.54,SSE,149,5.0,18.0,69,0.00,,,0.00,197,WeatherCatV1.21B27,2013-10-04 17:59:00,
2013-10-04 13:00:00,76.4,65.5,29.54,SSE,157,3.0,16.0,69,0.00,,,0.00,299,WeatherCatV1.21B27,2013-10-04 18:00:00,
2013-10-04 13:02:00,76.5,65.6,29.54,South,179,14.0,14.0,69,0.00,,,0.00,357,WeatherCatV1.21B27,2013-10-04 18:02:00,
2013-10-04 13:03:00,76.6,65.7,29.54,SE,137,4.0,17.0,69,0.00,,,0.00,357,WeatherCatV1.21B27,2013-10-04 18:03:00,
2013-10-04 13:04:00,76.7,65.7,29.54,SSW,194,3.0,17.0,69,0.00,,,0.00,357,WeatherCatV1.21B27,2013-10-04 18:04:00,
2013-10-04 13:05:00,76.8,65.4,29.54,SW,220,5.0,14.0,68,0.00,,,0.00,285,WeatherCatV1.21B27,2013-10-04 18:05:00,
2013-10-04 13:06:00,76.8,65.4,29.54,SW,225,5.0,14.0,68,0.00,,,0.00,285,WeatherCatV1.21B27,2013-10-04 18:06:00,
2013-10-04 13:07:00,76.9,65.5,29.54,SW,219,9.0,12.0,68,0.00,,,0.00,285,WeatherCatV1.21B27,2013-10-04 18:07:00,
2013-10-04 13:08:00,77.0,65.2,29.54,SSW,200,8.0,12.0,67,0.00,,,0.00,234,WeatherCatV1.21B27,2013-10-04 18:08:00,
2013-10-04 13:09:00,77.0,65.2,29.54,SSE,163,5.0,13.0,67,0.00,,,0.00,221,WeatherCatV1.21B27,2013-10-04 18:09:00,
2013-10-04 13:10:00,77.0,64.8,29.54,SW,223,10.0,14.0,66,0.00,,,0.00,274,WeatherCatV1.21B27,2013-10-04 18:10:00,
2013-10-04 13:11:00,77.1,65.3,29.54,SE,134,7.0,14.0,67,0.00,,,0.00,274,WeatherCatV1.21B27,2013-10-04 18:11:00,
2013-10-04 13:12:00,77.1,65.7,29.54,South,179,3.0,12.0,68,0.00,,,0.00,274,WeatherCatV1.21B27,2013-10-04 18:12:00,
2013-10-04 13:14:00,77.2,65.8,29.54,South,182,1.0,5.0,68,0.00,,,0.00,251,WeatherCatV1.21B27,2013-10-04 18:14:00,
2013-10-04 13:15:00,77.2,65.8,29.54,South,174,0.0,6.0,68,0.00,,,0.00,251,WeatherCatV1.21B27,2013-10-04 18:15:00,
2013-10-04 13:16:00,77.2,65.4,29.54,South,180,3.0,10.0,67,0.00,,,0.00,315,WeatherCatV1.21B27,2013-10-04 18:16:00,
2013-10-04 13:17:00,77.2,64.9,29.54,SSW,192,9.0,15.0,66,0.00,,,0.00,287,WeatherCatV1.21B27,2013-10-04 18:17:00,
2013-10-04 13:19:00,77.2,64.9,29.54,SSW,192,5.0,17.0,66,0.00,,,0.00,287,WeatherCatV1.21B27,2013-10-04 18:19:00,
2013-10-04 13:20:00,77.2,65.4,29.54,SSW,193,7.0,17.0,67,0.00,,,0.00,253,WeatherCatV1.21B27,2013-10-04 18:20:00,
2013-10-04 13:22:00,77.3,65.0,29.54,South,169,2.0,11.0,66,0.00,,,0.00,909,WeatherCatV1.21B27,2013-10-04 18:22:00,
2013-10-04 13:24:00,77.6,64.9,29.53,SSW,192,3.0,18.0,65,0.00,,,0.00,279,WeatherCatV1.21B27,2013-10-04 18:24:00,
2013-10-04 13:25:00,77.7,65.0,29.54,SSW,196,4.0,13.0,65,0.00,,,0.00,309,WeatherCatV1.21B27,2013-10-04 18:25:00,
2013-10-04 13:27:00,77.7,65.0,29.53,SW,222,5.0,13.0,65,0.00,,,0.00,278,WeatherCatV1.21B27,2013-10-04 18:27:00,
2013-10-04 13:29:00,77.7,64.5,29.53,South,190,11.0,14.0,64,0.00,,,0.00,371,WeatherCatV1.21B27,2013-10-04 18:29:00,
2013-10-04 13:31:00,77.8,65.1,29.53,SW,215,2.0,13.0,65,0.00,,,0.00,383,WeatherCatV1.21B27,2013-10-04 18:31:00,
2013-10-04 13:32:00,77.9,64.7,29.53,SW,215,11.0,16.0,64,0.00,,,0.00,930,WeatherCatV1.21B27,2013-10-04 18:32:00,
2013-10-04 13:34:00,77.9,64.3,29.53,SSW,193,7.0,20.0,63,0.00,,,0.00,213,WeatherCatV1.21B27,2013-10-04 18:34:00,
2013-10-04 13:36:00,77.8,64.2,29.53,SW,221,7.0,14.0,63,0.00,,,0.00,872,WeatherCatV1.21B27,2013-10-04 18:36:00,
2013-10-04 13:37:00,77.9,64.3,29.53,NW,313,5.0,11.0,63,0.00,,,0.00,802,WeatherCatV1.21B27,2013-10-04 18:37:00,
2013-10-04 13:38:00,78.0,64.4,29.53,WSW,250,3.0,10.0,63,0.00,,,0.00,756,WeatherCatV1.21B27,2013-10-04 18:38:00,
2013-10-04 13:39:00,78.2,64.1,29.53,WSW,250,9.0,12.0,62,0.00,,,0.00,749,WeatherCatV1.21B27,2013-10-04 18:39:00,
2013-10-04 13:40:00,78.3,64.2,29.53,WSW,243,2.0,12.0,62,0.00,,,0.00,738,WeatherCatV1.21B27,2013-10-04 18:40:00,
2013-10-04 13:41:00,78.5,64.4,29.53,SSE,161,9.0,10.0,62,0.00,,,0.00,738,WeatherCatV1.21B27,2013-10-04 18:41:00,
2013-10-04 13:42:00,78.7,64.1,29.53,SW,234,3.0,15.0,61,0.00,,,0.00,737,WeatherCatV1.21B27,2013-10-04 18:42:00,
2013-10-04 13:43:00,78.7,64.1,29.53,SW,226,5.0,15.0,61,0.00,,,0.00,724,WeatherCatV1.21B27,2013-10-04 18:43:00,
2013-10-04 13:44:00,78.7,63.6,29.53,SSW,195,6.0,12.0,60,0.00,,,0.00,724,WeatherCatV1.21B27,2013-10-04 18:44:00,
2013-10-04 13:45:00,78.7,63.1,29.53,SSW,207,4.0,9.0,59,0.00,,,0.00,722,WeatherCatV1.21B27,2013-10-04 18:45:00,
2013-10-04 13:46:00,78.7,63.1,29.53,SW,231,6.0,12.0,59,0.00,,,0.00,715,WeatherCatV1.21B27,2013-10-04 18:46:00,
2013-10-04 13:47:00,78.7,63.1,29.53,West,261,11.0,15.0,59,0.00,,,0.00,721,WeatherCatV1.21B27,2013-10-04 18:47:00,
2013-10-04 13:48:00,78.7,63.1,29.53,WSW,257,11.0,15.0,59,0.00,,,0.00,726,WeatherCatV1.21B27,2013-10-04 18:48:00,
2013-10-04 13:49:00,78.7,63.1,29.53,SSE,167,4.0,18.0,59,0.00,,,0.00,712,WeatherCatV1.21B27,2013-10-04 18:49:00,
2013-10-04 13:50:00,78.7,63.6,29.53,SW,222,5.0,18.0,60,0.00,,,0.00,714,WeatherCatV1.21B27,2013-10-04 18:50:00,
2013-10-04 13:51:00,78.7,63.1,29.53,SW,214,2.0,15.0,59,0.00,,,0.00,714,WeatherCatV1.21B27,2013-10-04 18:51:00,
2013-10-04 13:52:00,78.7,63.1,29.53,SW,232,10.0,15.0,59,0.00,,,0.00,708,WeatherCatV1.21B27,2013-10-04 18:52:00,
2013-10-04 13:53:00,78.7,63.1,29.53,South,182,3.0,15.0,59,0.00,,,0.00,708,WeatherCatV1.21B27,2013-10-04 18:53:00,
2013-10-04 13:54:00,78.7,62.7,29.53,WNW,294,2.0,15.0,58,0.00,,,0.00,715,WeatherCatV1.21B27,2013-10-04 18:54:00,
2013-10-04 13:55:00,78.7,62.7,29.53,SW,233,7.0,19.0,58,0.00,,,0.00,715,WeatherCatV1.21B27,2013-10-04 18:55:00,
2013-10-04 13:56:00,78.7,62.7,29.53,WSW,246,4.0,19.0,58,0.00,,,0.00,698,WeatherCatV1.21B27,2013-10-04 18:56:00,
2013-10-04 13:57:00,78.7,62.7,29.53,SW,218,4.0,10.0,58,0.00,,,0.00,710,WeatherCatV1.21B27,2013-10-04 18:57:00,
2013-10-04 13:58:00,78.7,62.7,29.53,South,184,6.0,11.0,58,0.00,,,0.00,717,WeatherCatV1.21B27,2013-10-04 18:58:00,
2013-10-04 13:59:00,78.7,63.1,29.53,SW,217,14.0,14.0,59,0.00,,,0.00,712,WeatherCatV1.21B27,2013-10-04 18:59:00,
2013-10-04 14:00:00,78.7,62.7,29.53,South,190,4.0,19.0,58,0.00,,,0.00,715,WeatherCatV1.21B27,2013-10-04 19:00:00,
2013-10-04 14:01:00,78.7,62.2,29.53,SW,236,5.0,19.0,57,0.00,,,0.00,717,WeatherCatV1.21B27,2013-10-04 19:01:00,
2013-10-04 14:02:00,78.7,62.7,29.53,SSE,164,6.0,15.0,58,0.00,,,0.00,708,WeatherCatV1.21B27,2013-10-04 19:02:00,
2013-10-04 14:03:00,78.7,62.7,29.53,WSW,238,12.0,15.0,58,0.00,,,0.00,708,WeatherCatV1.21B27,2013-10-04 19:03:00,
2013-10-04 14:04:00,78.7,62.2,29.53,SW,214,6.0,14.0,57,0.00,,,0.00,719,WeatherCatV1.21B27,2013-10-04 19:04:00,
2013-10-04 14:06:00,78.7,62.2,29.52,West,260,3.0,14.0,57,0.00,,,0.00,708,WeatherCatV1.21B27,2013-10-04 19:06:00,
2013-10-04 14:07:00,78.7,63.1,29.53,South,180,7.0,11.0,59,0.00,,,0.00,707,WeatherCatV1.21B27,2013-10-04 19:07:00,
2013-10-04 14:08:00,78.7,62.2,29.53,SSW,197,1.0,11.0,57,0.00,,,0.00,710,WeatherCatV1.21B27,2013-10-04 19:08:00,
2013-10-04 14:09:00,78.9,62.3,29.53,SSW,194,10.0,10.0,57,0.00,,,0.00,707,WeatherCatV1.21B27,2013-10-04 19:09:00,
2013-10-04 14:11:00,78.9,61.8,29.53,WSW,248,9.0,13.0,56,0.00,,,0.00,708,WeatherCatV1.21B27,2013-10-04 19:11:00,
2013-10-04 14:12:00,78.7,61.2,29.53,NW,323,15.0,20.0,55,0.00,,,0.00,703,WeatherCatV1.21B27,2013-10-04 19:12:00,
2013-10-04 14:13:00,78.7,61.2,29.53,NW,314,3.0,20.0,55,0.00,,,0.00,703,WeatherCatV1.21B27,2013-10-04 19:13:00,
2013-10-04 14:14:00,78.8,61.8,29.53,SSE,161,5.0,15.0,56,0.00,,,0.00,698,WeatherCatV1.21B27,2013-10-04 19:14:00,
2013-10-04 14:15:00,78.7,61.7,29.53,SW,225,7.0,12.0,56,0.00,,,0.00,698,WeatherCatV1.21B27,2013-10-04 19:15:00,
2013-10-04 14:16:00,78.7,60.6,29.53,WSW,248,8.0,15.0,54,0.00,,,0.00,694,WeatherCatV1.21B27,2013-10-04 19:16:00,
2013-10-04 14:17:00,78.5,60.5,29.53,SSW,213,8.0,15.0,54,0.00,,,0.00,694,WeatherCatV1.21B27,2013-10-04 19:17:00,
2013-10-04 14:18:00,78.5,60.5,29.53,South,180,4.0,15.0,54,0.00,,,0.00,694,WeatherCatV1.21B27,2013-10-04 19:18:00,
2013-10-04 14:20:00,78.4,60.9,29.53,West,272,10.0,22.0,55,0.00,,,0.00,693,WeatherCatV1.21B27,2013-10-04 19:20:00,
2013-10-04 14:21:00,78.3,60.3,29.53,SW,220,1.0,22.0,54,0.00,,,0.00,696,WeatherCatV1.21B27,2013-10-04 19:21:00,
2013-10-04 14:22:00,78.2,60.2,29.53,SW,218,2.0,13.0,54,0.00,,,0.00,696,WeatherCatV1.21B27,2013-10-04 19:22:00,
2013-10-04 14:23:00,78.2,60.7,29.53,SW,224,7.0,14.0,55,0.00,,,0.00,694,WeatherCatV1.21B27,2013-10-04 19:23:00,
2013-10-04 14:25:00,78.0,60.0,29.53,West,265,11.0,16.0,54,0.00,,,0.00,686,WeatherCatV1.21B27,2013-10-04 19:25:00,
2013-10-04 14:26:00,77.9,59.9,29.53,WSW,247,3.0,13.0,54,0.00,,,0.00,682,WeatherCatV1.21B27,2013-10-04 19:26:00,
2013-10-04 14:27:00,77.9,60.9,29.53,SSW,213,5.0,8.0,56,0.00,,,0.00,684,WeatherCatV1.21B27,2013-10-04 19:27:00,
2013-10-04 14:28:00,78.0,61.0,29.53,WSW,250,14.0,14.0,56,0.00,,,0.00,686,WeatherCatV1.21B27,2013-10-04 19:28:00,
2013-10-04 14:30:00,77.6,60.1,29.53,SSE,163,10.0,17.0,55,0.00,,,0.00,694,WeatherCatV1.21B27,2013-10-04 19:30:00,
2013-10-04 14:31:00,77.5,60.0,29.53,SSW,192,7.0,17.0,55,0.00,,,0.00,694,WeatherCatV1.21B27,2013-10-04 19:31:00,
2013-10-04 14:32:00,77.5,60.5,29.53,WNW,298,9.0,19.0,56,0.00,,,0.00,677,WeatherCatV1.21B27,2013-10-04 19:32:00,
2013-10-04 14:33:00,77.4,60.5,29.54,SW,221,7.0,19.0,56,0.00,,,0.00,679,WeatherCatV1.21B27,2013-10-04 19:33:00,
2013-10-04 14:36:00,77.5,60.0,29.53,SW,232,4.0,17.0,55,0.00,,,0.00,675,WeatherCatV1.21B27,2013-10-04 19:36:00,
2013-10-04 14:38:00,77.3,59.8,29.54,WSW,244,13.0,18.0,55,0.00,,,0.00,675,WeatherCatV1.21B27,2013-10-04 19:38:00,
2013-10-04 14:41:00,76.9,58.4,29.54,SW,232,6.0,13.0,53,0.00,,,0.00,679,WeatherCatV1.21B27,2013-10-04 19:41:00,
2013-10-04 14:42:00,76.8,58.9,29.54,NNW,338,7.0,18.0,54,0.00,,,0.00,680,WeatherCatV1.21B27,2013-10-04 19:42:00,
2013-10-04 14:43:00,76.8,58.3,29.54,SW,229,19.0,23.0,53,0.00,,,0.00,680,WeatherCatV1.21B27,2013-10-04 19:43:00,
2013-10-04 14:46:00,76.6,57.6,29.54,South,174,5.0,14.0,52,0.00,,,0.00,673,WeatherCatV1.21B27,2013-10-04 19:46:00,
2013-10-04 14:47:00,76.6,58.2,29.54,WSW,245,12.0,14.0,53,0.00,,,0.00,673,WeatherCatV1.21B27,2013-10-04 19:47:00,
2013-10-04 14:48:00,76.6,58.2,29.54,West,263,12.0,13.0,53,0.00,,,0.00,670,WeatherCatV1.21B27,2013-10-04 19:48:00,
2013-10-04 14:49:00,76.6,58.2,29.54,West,268,7.0,13.0,53,0.00,,,0.00,668,WeatherCatV1.21B27,2013-10-04 19:49:00,
2013-10-04 14:51:00,76.5,58.1,29.54,South,191,6.0,13.0,53,0.00,,,0.00,668,WeatherCatV1.21B27,2013-10-04 19:51:00,
2013-10-04 14:53:00,76.5,58.6,29.54,South,171,12.0,12.0,54,0.00,,,0.00,659,WeatherCatV1.21B27,2013-10-04 19:53:00,
2013-10-04 14:55:00,76.4,59.0,29.54,SSW,209,4.0,16.0,55,0.00,,,0.00,659,WeatherCatV1.21B27,2013-10-04 19:55:00,
2013-10-04 14:56:00,76.4,59.5,29.55,WNW,296,4.0,13.0,56,0.00,,,0.00,654,WeatherCatV1.21B27,2013-10-04 19:56:00,
2013-10-04 14:58:00,76.4,60.0,29.55,SSW,210,14.0,14.0,57,0.00,,,0.00,652,WeatherCatV1.21B27,2013-10-04 19:58:00,
2013-10-04 15:00:00,76.2,59.3,29.55,South,169,14.0,14.0,56,0.00,,,0.00,642,WeatherCatV1.21B27,2013-10-04 20:00:00,
2013-10-04 15:01:00,76.0,59.7,29.55,SW,229,9.0,14.0,57,0.00,,,0.00,643,WeatherCatV1.21B27,2013-10-04 20:01:00,
2013-10-04 15:03:00,75.8,59.5,29.55,SW,234,7.0,13.0,57,0.00,,,0.00,650,WeatherCatV1.21B27,2013-10-04 20:03:00,
2013-10-04 15:05:00,75.6,59.3,29.55,WSW,255,5.0,13.0,57,0.00,,,0.00,642,WeatherCatV1.21B27,2013-10-04 20:05:00,
2013-10-04 15:06:00,75.5,59.7,29.55,West,273,6.0,14.0,58,0.00,,,0.00,633,WeatherCatV1.21B27,2013-10-04 20:06:00,
2013-10-04 15:07:00,75.5,59.7,29.55,SSW,202,4.0,14.0,58,0.00,,,0.00,640,WeatherCatV1.21B27,2013-10-04 20:07:00,
2013-10-04 15:08:00,75.5,60.2,29.55,WSW,238,3.0,13.0,59,0.00,,,0.00,642,WeatherCatV1.21B27,2013-10-04 20:08:00,
2013-10-04 15:09:00,75.5,60.2,29.56,WSW,238,4.0,13.0,59,0.00,,,0.00,642,WeatherCatV1.21B27,2013-10-04 20:09:00,
2013-10-04 15:10:00,75.4,59.1,29.56,WSW,244,8.0,16.0,57,0.00,,,0.00,608,WeatherCatV1.21B27,2013-10-04 20:10:00,
2013-10-04 15:11:00,75.3,59.0,29.56,SW,219,11.0,16.0,57,0.00,,,0.00,635,WeatherCatV1.21B27,2013-10-04 20:11:00,
2013-10-04 15:12:00,75.3,59.5,29.56,SW,225,3.0,11.0,58,0.00,,,0.00,635,WeatherCatV1.21B27,2013-10-04 20:12:00,
2013-10-04 15:14:00,75.2,59.4,29.56,WSW,241,10.0,16.0,58,0.00,,,0.00,635,WeatherCatV1.21B27,2013-10-04 20:14:00,
2013-10-04 15:15:00,75.0,59.7,29.56,WSW,257,11.0,13.0,59,0.00,,,0.00,624,WeatherCatV1.21B27,2013-10-04 20:15:00,
2013-10-04 15:17:00,74.8,60.0,29.56,SW,229,9.0,21.0,60,0.00,,,0.00,619,WeatherCatV1.21B27,2013-10-04 20:17:00,
2013-10-04 15:19:00,74.8,60.0,29.56,WSW,250,7.0,14.0,60,0.00,,,0.00,615,WeatherCatV1.21B27,2013-10-04 20:19:00,
2013-10-04 15:20:00,74.8,59.5,29.56,South,190,6.0,15.0,59,0.00,,,0.00,615,WeatherCatV1.21B27,2013-10-04 20:20:00,
2013-10-04 15:22:00,74.8,59.0,29.56,WNW,282,3.0,15.0,58,0.00,,,0.00,610,WeatherCatV1.21B27,2013-10-04 20:22:00,
2013-10-04 15:23:00,74.8,59.0,29.56,WSW,254,10.0,12.0,58,0.00,,,0.00,610,WeatherCatV1.21B27,2013-10-04 20:23:00,
2013-10-04 15:24:00,74.8,59.0,29.57,West,273,9.0,14.0,58,0.00,,,0.00,605,WeatherCatV1.21B27,2013-10-04 20:24:00,
2013-10-04 15:26:00,74.7,58.9,29.56,SW,229,11.0,15.0,58,0.00,,,0.00,605,WeatherCatV1.21B27,2013-10-04 20:26:00,
2013-10-04 15:27:00,74.7,58.9,29.57,South,180,6.0,17.0,58,0.00,,,0.00,601,WeatherCatV1.21B27,2013-10-04 20:27:00,
2013-10-04 15:28:00,74.6,58.8,29.57,West,263,8.0,17.0,58,0.00,,,0.00,603,WeatherCatV1.21B27,2013-10-04 20:28:00,
2013-10-04 15:29:00,74.5,58.7,29.56,SW,235,7.0,19.0,58,0.00,,,0.00,603,WeatherCatV1.21B27,2013-10-04 20:29:00,
2013-10-04 15:30:00,74.4,58.6,29.57,South,184,6.0,19.0,58,0.00,,,0.00,610,WeatherCatV1.21B27,2013-10-04 20:30:00,
2013-10-04 15:31:00,74.4,58.6,29.57,WSW,248,9.0,16.0,58,0.00,,,0.00,610,WeatherCatV1.21B27,2013-10-04 20:31:00,
2013-10-04 15:32:00,74.4,59.1,29.57,WSW,242,4.0,12.0,59,0.00,,,0.00,608,WeatherCatV1.21B27,2013-10-04 20:32:00,
2013-10-04 15:33:00,74.5,59.2,29.57,West,261,4.0,10.0,59,0.00,,,0.00,612,WeatherCatV1.21B27,2013-10-04 20:33:00,
2013-10-04 15:34:00,74.6,59.3,29.57,SSW,201,7.0,14.0,59,0.00,,,0.00,603,WeatherCatV1.21B27,2013-10-04 20:34:00,
2013-10-04 15:35:00,74.6,58.8,29.57,WNW,292,3.0,14.0,58,0.00,,,0.00,599,WeatherCatV1.21B27,2013-10-04 20:35:00,
2013-10-04 15:36:00,74.6,58.8,29.56,West,262,5.0,9.0,58,0.00,,,0.00,605,WeatherCatV1.21B27,2013-10-04 20:36:00,
2013-10-04 15:37:00,74.6,58.8,29.57,NW,321,11.0,16.0,58,0.00,,,0.00,606,WeatherCatV1.21B27,2013-10-04 20:37:00,
2013-10-04 15:38:00,74.5,58.7,29.56,WNW,283,6.0,16.0,58,0.00,,,0.00,610,WeatherCatV1.21B27,2013-10-04 20:38:00,
2013-10-04 15:39:00,74.5,59.2,29.56,WSW,250,4.0,14.0,59,0.00,,,0.00,598,WeatherCatV1.21B27,2013-10-04 20:39:00,
2013-10-04 15:40:00,74.5,59.2,29.56,WSW,237,1.0,12.0,59,0.00,,,0.00,591,WeatherCatV1.21B27,2013-10-04 20:40:00,
2013-10-04 15:41:00,74.5,59.2,29.57,West,272,9.0,12.0,59,0.00,,,0.00,591,WeatherCatV1.21B27,2013-10-04 20:41:00,
2013-10-04 15:43:00,74.6,59.3,29.56,West,268,3.0,15.0,59,0.00,,,0.00,596,WeatherCatV1.21B27,2013-10-04 20:43:00,
2013-10-04 15:44:00,74.6,59.3,29.57,WSW,251,4.0,15.0,59,0.00,,,0.00,582,WeatherCatV1.21B27,2013-10-04 20:44:00,
2013-10-04 15:45:00,74.5,59.7,29.56,WSW,248,14.0,15.0,60,0.00,,,0.00,582,WeatherCatV1.21B27,2013-10-04 20:45:00,
2013-10-04 15:46:00,74.5,59.2,29.57,SE,146,9.0,14.0,59,0.00,,,0.00,582,WeatherCatV1.21B27,2013-10-04 20:46:00,
2013-10-04 15:48:00,74.4,59.6,29.57,SW,231,7.0,19.0,60,0.00,,,0.00,598,WeatherCatV1.21B27,2013-10-04 20:48:00,
2013-10-04 15:50:00,74.2,59.9,29.57,WSW,251,10.0,15.0,61,0.00,,,0.00,622,WeatherCatV1.21B27,2013-10-04 20:50:00,
2013-10-04 15:51:00,74.1,59.8,29.57,SW,232,13.0,17.0,61,0.00,,,0.00,622,WeatherCatV1.21B27,2013-10-04 20:51:00,
2013-10-04 15:52:00,73.9,59.1,29.57,South,188,7.0,21.0,60,0.00,,,0.00,594,WeatherCatV1.21B27,2013-10-04 20:52:00,
2013-10-04 15:53:00,73.8,59.5,29.57,West,263,7.0,21.0,61,0.00,,,0.00,570,WeatherCatV1.21B27,2013-10-04 20:53:00,
2013-10-04 15:55:00,73.6,59.8,29.58,WSW,257,5.0,19.0,62,0.00,,,0.00,545,WeatherCatV1.21B27,2013-10-04 20:55:00,
2013-10-04 15:56:00,73.5,59.2,29.58,WNW,302,10.0,10.0,61,0.00,,,0.00,550,WeatherCatV1.21B27,2013-10-04 20:56:00,
2013-10-04 15:57:00,73.3,59.5,29.58,SW,229,12.0,12.0,62,0.00,,,0.00,550,WeatherCatV1.21B27,2013-10-04 20:57:00,
2013-10-04 15:58:00,73.3,59.5,29.58,WNW,298,6.0,12.0,62,0.00,,,0.00,568,WeatherCatV1.21B27,2013-10-04 20:58:00,
2013-10-04 15:59:00,73.3,59.5,29.58,WNW,298,2.0,12.0,62,0.00,,,0.00,568,WeatherCatV1.21B27,2013-10-04 20:59:00,
2013-10-04 16:00:00,73.4,60.0,29.58,WSW,253,12.0,17.0,63,0.00,,,0.00,561,WeatherCatV1.21B27,2013-10-04 21:00:00,
2013-10-04 16:01:00,73.3,59.5,29.58,SSW,211,4.0,17.0,62,0.00,,,0.00,552,WeatherCatV1.21B27,2013-10-04 21:01:00,
2013-10-04 16:03:00,73.3,59.5,29.58,WSW,257,12.0,16.0,62,0.00,,,0.00,540,WeatherCatV1.21B27,2013-10-04 21:03:00,
2013-10-04 16:04:00,73.2,58.9,29.58,WSW,246,12.0,17.0,61,0.00,,,0.00,529,WeatherCatV1.21B27,2013-10-04 21:04:00,
2013-10-04 16:05:00,73.0,59.2,29.58,NW,325,7.0,17.0,62,0.00,,,0.00,520,WeatherCatV1.21B27,2013-10-04 21:05:00,
2013-10-04 16:06:00,72.9,59.1,29.58,West,269,7.0,11.0,62,0.00,,,0.00,520,WeatherCatV1.21B27,2013-10-04 21:06:00,
2013-10-04 16:07:00,72.6,58.4,29.58,SW,229,4.0,15.0,61,0.00,,,0.00,515,WeatherCatV1.21B27,2013-10-04 21:07:00,
2013-10-04 16:08:00,72.6,58.4,29.58,WNW,294,7.0,15.0,61,0.00,,,0.00,515,WeatherCatV1.21B27,2013-10-04 21:08:00,
2013-10-04 16:09:00,72.3,58.5,29.59,WSW,250,14.0,17.0,62,0.00,,,0.00,515,WeatherCatV1.21B27,2013-10-04 21:09:00,
2013-10-04 16:10:00,72.2,58.4,29.59,WNW,300,9.0,16.0,62,0.00,,,0.00,513,WeatherCatV1.21B27,2013-10-04 21:10:00,
2013-10-04 16:11:00,72.1,58.3,29.59,SSW,213,12.0,12.0,62,0.00,,,0.00,508,WeatherCatV1.21B27,2013-10-04 21:11:00,
2013-10-04 16:13:00,72.1,58.3,29.59,SW,223,3.0,16.0,62,0.00,,,0.00,506,WeatherCatV1.21B27,2013-10-04 21:13:00,
2013-10-04 16:14:00,72.0,58.7,29.59,WSW,257,7.0,12.0,63,0.00,,,0.00,497,WeatherCatV1.21B27,2013-10-04 21:14:00,
2013-10-04 16:15:00,72.0,58.2,29.59,West,276,9.0,19.0,62,0.00,,,0.00,490,WeatherCatV1.21B27,2013-10-04 21:15:00,
2013-10-04 16:17:00,71.8,58.5,29.59,WSW,251,14.0,19.0,63,0.00,,,0.00,490,WeatherCatV1.21B27,2013-10-04 21:17:00,
2013-10-04 16:18:00,71.7,58.4,29.59,SW,220,11.0,18.0,63,0.00,,,0.00,478,WeatherCatV1.21B27,2013-10-04 21:18:00,
2013-10-04 16:19:00,71.5,58.2,29.60,WSW,240,15.0,18.0,63,0.00,,,0.00,475,WeatherCatV1.21B27,2013-10-04 21:19:00,
2013-10-04 16:20:00,71.4,58.1,29.60,WNW,289,10.0,19.0,63,0.00,,,0.00,478,WeatherCatV1.21B27,2013-10-04 21:20:00,
2013-10-04 16:22:00,71.3,58.0,29.60,West,259,11.0,19.0,63,0.00,,,0.00,473,WeatherCatV1.21B27,2013-10-04 21:22:00,
2013-10-04 16:23:00,71.0,57.3,29.60,WSW,241,16.0,19.0,62,0.00,,,0.00,468,WeatherCatV1.21B27,2013-10-04 21:23:00,
2013-10-04 16:24:00,70.7,57.0,29.60,SW,221,7.0,23.0,62,0.00,,,0.00,468,WeatherCatV1.21B27,2013-10-04 21:24:00,
2013-10-04 16:25:00,70.6,56.9,29.60,SW,222,19.0,23.0,62,0.00,,,0.00,468,WeatherCatV1.21B27,2013-10-04 21:25:00,
2013-10-04 16:27:00,70.5,57.3,29.61,West,263,9.0,15.0,63,0.00,,,0.00,461,WeatherCatV1.21B27,2013-10-04 21:27:00,
2013-10-04 16:28:00,70.4,56.8,29.60,SW,229,5.0,22.0,62,0.00,,,0.00,455,WeatherCatV1.21B27,2013-10-04 21:28:00,
2013-10-04 16:29:00,70.4,57.2,29.61,SW,229,16.0,22.0,63,0.00,,,0.00,454,WeatherCatV1.21B27,2013-10-04 21:29:00,
2013-10-04 16:30:00,70.2,56.6,29.61,WSW,244,7.0,26.0,62,0.00,,,0.00,450,WeatherCatV1.21B27,2013-10-04 21:30:00,
2013-10-04 16:32:00,70.1,56.5,29.61,WNW,284,8.0,14.0,62,0.00,,,0.00,446,WeatherCatV1.21B27,2013-10-04 21:32:00,
2013-10-04 16:34:00,70.0,56.4,29.61,West,259,9.0,22.0,62,0.00,,,0.00,439,WeatherCatV1.21B27,2013-10-04 21:34:00,
2013-10-04 16:35:00,69.9,56.3,29.61,West,261,6.0,22.0,62,0.00,,,0.00,439,WeatherCatV1.21B27,2013-10-04 21:35:00,
2013-10-04 16:36:00,69.7,56.1,29.61,WSW,240,14.0,22.0,62,0.00,,,0.00,438,WeatherCatV1.21B27,2013-10-04 21:36:00,
2013-10-04 16:37:00,69.6,56.0,29.61,West,275,10.0,17.0,62,0.00,,,0.00,438,WeatherCatV1.21B27,2013-10-04 21:37:00,
2013-10-04 16:39:00,69.4,55.8,29.61,West,273,5.0,16.0,62,0.00,,,0.00,432,WeatherCatV1.21B27,2013-10-04 21:39:00,
2013-10-04 16:40:00,69.4,55.8,29.62,WNW,292,3.0,16.0,62,0.00,,,0.00,427,WeatherCatV1.21B27,2013-10-04 21:40:00,
2013-10-04 16:41:00,69.4,55.8,29.62,WNW,302,6.0,18.0,62,0.00,,,0.00,420,WeatherCatV1.21B27,2013-10-04 21:41:00,
2013-10-04 16:42:00,69.4,55.8,29.62,WSW,245,2.0,18.0,62,0.00,,,0.00,417,WeatherCatV1.21B27,2013-10-04 21:42:00,
2013-10-04 16:44:00,69.4,55.8,29.62,SW,230,5.0,9.0,62,0.00,,,0.00,410,WeatherCatV1.21B27,2013-10-04 21:44:00,
2013-10-04 16:45:00,69.5,56.3,29.62,WNW,292,11.0,11.0,63,0.00,,,0.00,410,WeatherCatV1.21B27,2013-10-04 21:45:00,
2013-10-04 16:46:00,69.5,55.9,29.62,NW,310,17.0,20.0,62,0.00,,,0.00,408,WeatherCatV1.21B27,2013-10-04 21:46:00,
2013-10-04 16:47:00,69.3,55.3,29.62,WSW,252,3.0,20.0,61,0.00,,,0.00,404,WeatherCatV1.21B27,2013-10-04 21:47:00,
2013-10-04 16:49:00,69.0,55.0,29.62,SW,232,15.0,20.0,61,0.00,,,0.00,397,WeatherCatV1.21B27,2013-10-04 21:49:00,
2013-10-04 16:50:00,68.8,54.3,29.63,SW,236,12.0,20.0,60,0.00,,,0.00,394,WeatherCatV1.21B27,2013-10-04 21:50:00,
2013-10-04 16:51:00,68.5,54.1,29.62,West,264,15.0,23.0,60,0.00,,,0.00,396,WeatherCatV1.21B27,2013-10-04 21:51:00,
2013-10-04 16:52:00,68.4,54.0,29.63,WNW,290,14.0,23.0,60,0.00,,,0.00,392,WeatherCatV1.21B27,2013-10-04 21:52:00,
2013-10-04 16:54:00,68.2,53.8,29.63,West,271,12.0,22.0,60,0.00,,,0.00,383,WeatherCatV1.21B27,2013-10-04 21:54:00,
2013-10-04 16:55:00,68.2,53.8,29.64,West,281,20.0,22.0,60,0.00,,,0.00,383,WeatherCatV1.21B27,2013-10-04 21:55:00,
2013-10-04 16:57:00,67.9,53.0,29.63,SW,217,6.0,18.0,59,0.00,,,0.00,378,WeatherCatV1.21B27,2013-10-04 21:57:00,
2013-10-04 17:00:00,67.6,52.8,29.64,WSW,250,7.0,19.0,59,0.00,,,0.00,371,WeatherCatV1.21B27,2013-10-04 22:00:00,
2013-10-04 17:01:00,67.5,53.1,29.64,WSW,251,5.0,19.0,60,0.00,,,0.00,366,WeatherCatV1.21B27,2013-10-04 22:01:00,
2013-10-04 17:02:00,67.5,52.7,29.64,WSW,243,5.0,16.0,59,0.00,,,0.00,360,WeatherCatV1.21B27,2013-10-04 22:02:00,
2013-10-04 17:03:00,67.4,52.6,29.64,West,269,4.0,18.0,59,0.00,,,0.00,359,WeatherCatV1.21B27,2013-10-04 22:03:00,
2013-10-04 17:05:00,67.4,53.0,29.64,SSW,207,9.0,17.0,60,0.00,,,0.00,350,WeatherCatV1.21B27,2013-10-04 22:05:00,
2013-10-04 17:06:00,67.4,52.6,29.64,West,259,14.0,15.0,59,0.00,,,0.00,350,WeatherCatV1.21B27,2013-10-04 22:06:00,
2013-10-04 17:07:00,67.4,52.6,29.64,WSW,243,10.0,14.0,59,0.00,,,0.00,346,WeatherCatV1.21B27,2013-10-04 22:07:00,
2013-10-04 17:08:00,67.3,52.5,29.65,WSW,252,13.0,17.0,59,0.00,,,0.00,341,WeatherCatV1.21B27,2013-10-04 22:08:00,
2013-10-04 17:10:00,67.0,51.7,29.65,SW,236,11.0,18.0,58,0.00,,,0.00,334,WeatherCatV1.21B27,2013-10-04 22:10:00,
2013-10-04 17:11:00,66.7,51.5,29.65,SW,234,16.0,25.0,58,0.00,,,0.00,334,WeatherCatV1.21B27,2013-10-04 22:11:00,
2013-10-04 17:12:00,66.5,51.3,29.65,West,275,9.0,25.0,58,0.00,,,0.00,332,WeatherCatV1.21B27,2013-10-04 22:12:00,
2013-10-04 17:13:00,66.3,51.1,29.65,West,278,12.0,22.0,58,0.00,,,0.00,327,WeatherCatV1.21B27,2013-10-04 22:13:00,
2013-10-04 17:14:00,66.3,51.1,29.65,WNW,283,6.0,22.0,58,0.00,,,0.00,327,WeatherCatV1.21B27,2013-10-04 22:14:00,
2013-10-04 17:15:00,66.0,50.8,29.65,SW,236,12.0,22.0,58,0.00,,,0.00,322,WeatherCatV1.21B27,2013-10-04 22:15:00,
2013-10-04 17:16:00,65.9,50.7,29.65,WSW,241,5.0,18.0,58,0.00,,,0.00,322,WeatherCatV1.21B27,2013-10-04 22:16:00,
2013-10-04 17:17:00,65.8,50.6,29.65,West,274,5.0,12.0,58,0.00,,,0.00,318,WeatherCatV1.21B27,2013-10-04 22:17:00,
2013-10-04 17:18:00,65.7,51.0,29.65,WSW,240,12.0,14.0,59,0.00,,,0.00,313,WeatherCatV1.21B27,2013-10-04 22:18:00,
2013-10-04 17:19:00,65.7,51.0,29.65,WSW,253,9.0,14.0,59,0.00,,,0.00,313,WeatherCatV1.21B27,2013-10-04 22:19:00,
2013-10-04 17:20:00,65.6,50.9,29.65,SW,236,7.0,17.0,59,0.00,,,0.00,311,WeatherCatV1.21B27,2013-10-04 22:20:00,
2013-10-04 17:21:00,65.6,50.9,29.65,SW,227,15.0,17.0,59,0.00,,,0.00,306,WeatherCatV1.21B27,2013-10-04 22:21:00,
2013-10-04 17:22:00,65.5,50.8,29.65,WSW,256,5.0,15.0,59,0.00,,,0.00,302,WeatherCatV1.21B27,2013-10-04 22:22:00,
2013-10-04 17:23:00,65.4,50.2,29.65,West,273,7.0,17.0,58,0.00,,,0.00,297,WeatherCatV1.21B27,2013-10-04 22:23:00,
2013-10-04 17:24:00,65.3,50.1,29.65,NW,315,3.0,11.0,58,0.00,,,0.00,295,WeatherCatV1.21B27,2013-10-04 22:24:00,
2013-10-04 17:25:00,65.3,50.1,29.65,WSW,249,5.0,13.0,58,0.00,,,0.00,295,WeatherCatV1.21B27,2013-10-04 22:25:00,
2013-10-04 17:26:00,65.3,50.6,29.65,WSW,238,6.0,13.0,59,0.00,,,0.00,292,WeatherCatV1.21B27,2013-10-04 22:26:00,
2013-10-04 17:27:00,65.3,50.1,29.66,WNW,296,10.0,19.0,58,0.00,,,0.00,290,WeatherCatV1.21B27,2013-10-04 22:27:00,
2013-10-04 17:29:00,65.2,50.0,29.66,West,281,14.0,21.0,58,0.00,,,0.00,287,WeatherCatV1.21B27,2013-10-04 22:29:00,
2013-10-04 17:30:00,65.0,49.9,29.66,West,278,9.0,17.0,58,0.00,,,0.00,281,WeatherCatV1.21B27,2013-10-04 22:30:00,
2013-10-04 17:32:00,64.8,49.2,29.66,WSW,245,11.0,19.0,57,0.00,,,0.00,274,WeatherCatV1.21B27,2013-10-04 22:32:00,
2013-10-04 17:34:00,64.7,49.6,29.66,West,274,9.0,13.0,58,0.00,,,0.00,267,WeatherCatV1.21B27,2013-10-04 22:34:00,
2013-10-04 17:35:00,64.7,49.6,29.66,WNW,302,9.0,15.0,58,0.00,,,0.00,264,WeatherCatV1.21B27,2013-10-04 22:35:00,
2013-10-04 17:37:00,64.5,49.4,29.66,WSW,244,8.0,15.0,58,0.00,,,0.00,253,WeatherCatV1.21B27,2013-10-04 22:37:00,
2013-10-04 17:38:00,64.5,49.4,29.67,WSW,254,8.0,12.0,58,0.00,,,0.00,246,WeatherCatV1.21B27,2013-10-04 22:38:00,
2013-10-04 17:39:00,64.6,49.5,29.66,WSW,257,13.0,14.0,58,0.00,,,0.00,243,WeatherCatV1.21B27,2013-10-04 22:39:00,
2013-10-04 17:40:00,64.5,49.4,29.66,WSW,251,6.0,14.0,58,0.00,,,0.00,241,WeatherCatV1.21B27,2013-10-04 22:40:00,
2013-10-04 17:41:00,64.5,49.4,29.66,WSW,253,9.0,14.0,58,0.00,,,0.00,237,WeatherCatV1.21B27,2013-10-04 22:41:00,
2013-10-04 17:42:00,64.5,49.8,29.67,SW,232,3.0,11.0,59,0.00,,,0.00,237,WeatherCatV1.21B27,2013-10-04 22:42:00,
2013-10-04 17:43:00,64.5,49.8,29.67,SW,229,4.0,11.0,59,0.00,,,0.00,230,WeatherCatV1.21B27,2013-10-04 22:43:00,
2013-10-04 17:45:00,64.6,49.9,29.67,West,273,7.0,13.0,59,0.00,,,0.00,221,WeatherCatV1.21B27,2013-10-04 22:45:00,
2013-10-04 17:46:00,64.6,49.5,29.67,SW,236,7.0,17.0,58,0.00,,,0.00,218,WeatherCatV1.21B27,2013-10-04 22:46:00,
2013-10-04 17:47:00,64.5,49.4,29.67,SSW,211,10.0,21.0,58,0.00,,,0.00,213,WeatherCatV1.21B27,2013-10-04 22:47:00,
2013-10-04 17:48:00,64.4,49.3,29.67,WSW,253,7.0,21.0,58,0.00,,,0.00,209,WeatherCatV1.21B27,2013-10-04 22:48:00,
2013-10-04 17:50:00,64.2,49.1,29.67,NW,306,9.0,21.0,58,0.00,,,0.00,202,WeatherCatV1.21B27,2013-10-04 22:50:00,
2013-10-04 17:51:00,64.2,49.1,29.67,NW,326,5.0,21.0,58,0.00,,,0.00,199,WeatherCatV1.21B27,2013-10-04 22:51:00,
2013-10-04 17:52:00,64.0,48.5,29.67,WSW,248,6.0,20.0,57,0.00,,,0.00,193,WeatherCatV1.21B27,2013-10-04 22:52:00,
2013-10-04 17:53:00,64.0,48.5,29.67,West,279,12.0,20.0,57,0.00,,,0.00,190,WeatherCatV1.21B27,2013-10-04 22:53:00,
2013-10-04 17:55:00,63.8,47.8,29.68,WSW,240,11.0,13.0,56,0.00,,,0.00,181,WeatherCatV1.21B27,2013-10-04 22:55:00,
2013-10-04 17:56:00,63.6,47.6,29.68,West,277,13.0,13.0,56,0.00,,,0.00,179,WeatherCatV1.21B27,2013-10-04 22:56:00,
2013-10-04 17:57:00,63.6,47.6,29.68,West,279,22.0,22.0,56,0.00,,,0.00,176,WeatherCatV1.21B27,2013-10-04 22:57:00,
2013-10-04 17:58:00,63.4,47.4,29.68,West,271,7.0,23.0,56,0.00,,,0.00,172,WeatherCatV1.21B27,2013-10-04 22:58:00,
2013-10-04 18:00:00,63.1,47.1,29.68,SW,233,12.0,15.0,56,0.00,,,0.00,162,WeatherCatV1.21B27,2013-10-04 23:00:00,
2013-10-04 18:01:00,63.0,47.5,29.68,WSW,258,11.0,18.0,57,0.00,,,0.00,158,WeatherCatV1.21B27,2013-10-04 23:01:00,
2013-10-04 18:02:00,62.8,46.9,29.68,WSW,248,9.0,19.0,56,0.00,,,0.00,155,WeatherCatV1.21B27,2013-10-04 23:02:00,
2013-10-04 18:03:00,62.7,46.8,29.68,WSW,237,17.0,19.0,56,0.00,,,0.00,155,WeatherCatV1.21B27,2013-10-04 23:03:00,
2013-10-04 18:05:00,62.5,46.6,29.68,WSW,257,11.0,12.0,56,0.00,,,0.00,144,WeatherCatV1.21B27,2013-10-04 23:05:00,
2013-10-04 18:07:00,62.3,46.4,29.68,West,266,3.0,18.0,56,0.00,,,0.00,137,WeatherCatV1.21B27,2013-10-04 23:07:00,
2013-10-04 18:08:00,62.3,46.4,29.68,WSW,257,3.0,16.0,56,0.00,,,0.00,134,WeatherCatV1.21B27,2013-10-04 23:08:00,
2013-10-04 18:10:00,62.0,46.1,29.69,WSW,252,4.0,12.0,56,0.00,,,0.00,123,WeatherCatV1.21B27,2013-10-04 23:10:00,
2013-10-04 18:12:00,61.9,46.0,29.69,WNW,289,6.0,14.0,56,0.00,,,0.00,120,WeatherCatV1.21B27,2013-10-04 23:12:00,
2013-10-04 18:13:00,61.8,46.4,29.69,WNW,300,13.0,14.0,57,0.00,,,0.00,116,WeatherCatV1.21B27,2013-10-04 23:13:00,
2013-10-04 18:14:00,61.7,46.3,29.69,West,271,7.0,16.0,57,0.00,,,0.00,113,WeatherCatV1.21B27,2013-10-04 23:14:00,
2013-10-04 18:15:00,61.6,46.2,29.69,WSW,256,4.0,16.0,57,0.00,,,0.00,105,WeatherCatV1.21B27,2013-10-04 23:15:00,
2013-10-04 18:17:00,61.4,46.0,29.69,NW,306,15.0,20.0,57,0.00,,,0.00,102,WeatherCatV1.21B27,2013-10-04 23:17:00,
2013-10-04 18:18:00,61.4,46.0,29.69,WSW,237,7.0,20.0,57,0.00,,,0.00,98,WeatherCatV1.21B27,2013-10-04 23:18:00,
2013-10-04 18:19:00,61.2,45.8,29.69,WSW,249,4.0,22.0,57,0.00,,,0.00,91,WeatherCatV1.21B27,2013-10-04 23:19:00,
2013-10-04 18:20:00,61.1,45.8,29.69,West,267,13.0,22.0,57,0.00,,,0.00,88,WeatherCatV1.21B27,2013-10-04 23:20:00,
2013-10-04 18:22:00,61.0,45.7,29.69,SW,234,11.0,19.0,57,0.00,,,0.00,84,WeatherCatV1.21B27,2013-10-04 23:22:00,
2013-10-04 18:23:00,60.9,45.6,29.69,West,263,4.0,16.0,57,0.00,,,0.00,81,WeatherCatV1.21B27,2013-10-04 23:23:00,
2013-10-04 18:24:00,60.8,45.5,29.69,WNW,288,13.0,16.0,57,0.00,,,0.00,77,WeatherCatV1.21B27,2013-10-04 23:24:00,
2013-10-04 18:25:00,60.6,44.8,29.69,WNW,298,4.0,15.0,56,0.00,,,0.00,72,WeatherCatV1.21B27,2013-10-04 23:25:00,
2013-10-04 18:26:00,60.5,45.2,29.69,NW,311,23.0,23.0,57,0.00,,,0.00,70,WeatherCatV1.21B27,2013-10-04 23:26:00,
2013-10-04 18:27:00,60.4,45.1,29.69,SSW,210,10.0,23.0,57,0.00,,,0.00,67,WeatherCatV1.21B27,2013-10-04 23:27:00,
2013-10-04 18:28:00,60.2,44.9,29.69,SW,232,8.0,23.0,57,0.00,,,0.00,62,WeatherCatV1.21B27,2013-10-04 23:28:00,
2013-10-04 18:29:00,60.2,44.9,29.69,West,273,7.0,11.0,57,0.00,,,0.00,62,WeatherCatV1.21B27,2013-10-04 23:29:00,
2013-10-04 18:30:00,60.0,45.2,29.70,WSW,246,3.0,9.0,58,0.00,,,0.00,56,WeatherCatV1.21B27,2013-10-04 23:30:00,
2013-10-04 18:31:00,59.9,45.1,29.70,SW,223,3.0,11.0,58,0.00,,,0.00,54,WeatherCatV1.21B27,2013-10-04 23:31:00,
2013-10-04 18:32:00,59.9,45.1,29.70,WNW,291,19.0,19.0,58,0.00,,,0.00,51,WeatherCatV1.21B27,2013-10-04 23:32:00,
2013-10-04 18:33:00,59.6,44.3,29.70,WSW,237,10.0,19.0,57,0.00,,,0.00,44,WeatherCatV1.21B27,2013-10-04 23:33:00,
2013-10-04 18:34:00,59.6,44.8,29.70,NNW,327,9.0,19.0,58,0.00,,,0.00,44,WeatherCatV1.21B27,2013-10-04 23:34:00,
2013-10-04 18:35:00,59.4,44.6,29.70,West,273,13.0,13.0,58,0.00,,,0.00,32,WeatherCatV1.21B27,2013-10-04 23:35:00,
2013-10-04 18:36:00,59.0,44.2,29.70,WNW,284,9.0,19.0,58,0.00,,,0.00,28,WeatherCatV1.21B27,2013-10-04 23:36:00,
2013-10-04 18:37:00,59.0,44.2,29.71,WNW,302,10.0,19.0,58,0.00,,,0.00,26,WeatherCatV1.21B27,2013-10-04 23:37:00,
2013-10-04 18:39:00,58.9,44.2,29.71,SW,236,15.0,15.0,58,0.00,,,0.00,25,WeatherCatV1.21B27,2013-10-04 23:39:00,
2013-10-04 18:40:00,58.6,44.3,29.71,West,269,12.0,19.0,59,0.00,,,0.00,23,WeatherCatV1.21B27,2013-10-04 23:40:00,
2013-10-04 18:41:00,58.5,44.2,29.71,WNW,291,14.0,19.0,59,0.00,,,0.00,23,WeatherCatV1.21B27,2013-10-04 23:41:00,
2013-10-04 18:42:00,58.3,44.0,29.71,WSW,257,12.0,16.0,59,0.00,,,0.00,23,WeatherCatV1.21B27,2013-10-04 23:42:00,
2013-10-04 18:43:00,58.2,43.9,29.71,WSW,254,5.0,15.0,59,0.00,,,0.00,23,WeatherCatV1.21B27,2013-10-04 23:43:00,
2013-10-04 18:44:00,58.1,44.3,29.71,WNW,287,5.0,15.0,60,0.00,,,0.00,21,WeatherCatV1.21B27,2013-10-04 23:44:00,
2013-10-04 18:45:00,57.9,44.1,29.71,West,261,9.0,12.0,60,0.00,,,0.00,21,WeatherCatV1.21B27,2013-10-04 23:45:00,
2013-10-04 18:46:00,57.8,44.0,29.71,WNW,288,6.0,14.0,60,0.00,,,0.00,21,WeatherCatV1.21B27,2013-10-04 23:46:00,
2013-10-04 18:47:00,57.8,44.0,29.71,WNW,283,14.0,16.0,60,0.00,,,0.00,19,WeatherCatV1.21B27,2013-10-04 23:47:00,
2013-10-04 18:48:00,57.6,43.8,29.71,WNW,288,11.0,16.0,60,0.00,,,0.00,19,WeatherCatV1.21B27,2013-10-04 23:48:00,
2013-10-04 18:49:00,57.6,43.8,29.71,West,261,6.0,17.0,60,0.00,,,0.00,19,WeatherCatV1.21B27,2013-10-04 23:49:00,
2013-10-04 18:50:00,57.4,43.6,29.72,SW,225,5.0,13.0,60,0.00,,,0.00,19,WeatherCatV1.21B27,2013-10-04 23:50:00,
2013-10-04 18:51:00,57.4,43.6,29.72,SW,226,2.0,13.0,60,0.00,,,0.00,19,WeatherCatV1.21B27,2013-10-04 23:51:00,
2013-10-04 18:52:00,57.2,43.9,29.72,WNW,303,10.0,11.0,61,0.00,,,0.00,18,WeatherCatV1.21B27,2013-10-04 23:52:00,
2013-10-04 18:53:00,57.2,43.9,29.72,West,264,12.0,19.0,61,0.00,,,0.00,18,WeatherCatV1.21B27,2013-10-04 23:53:00,
2013-10-04 18:54:00,57.1,43.8,29.72,WSW,253,5.0,19.0,61,0.00,,,0.00,16,WeatherCatV1.21B27,2013-10-04 23:54:00,
2013-10-04 18:56:00,56.9,44.0,29.72,WSW,254,10.0,15.0,62,0.00,,,0.00,14,WeatherCatV1.21B27,2013-10-04 23:56:00,
2013-10-04 18:57:00,56.7,43.4,29.72,NW,321,10.0,15.0,61,0.00,,,0.00,14,WeatherCatV1.21B27,2013-10-04 23:57:00,
2013-10-04 18:58:00,56.6,43.3,29.73,WSW,238,12.0,15.0,61,0.00,,,0.00,12,WeatherCatV1.21B27,2013-10-04 23:58:00,
2013-10-04 18:59:00,56.5,43.2,29.72,WNW,286,11.0,14.0,61,0.00,,,0.00,12,WeatherCatV1.21B27,2013-10-04 23:59:00,
2013-10-04 19:01:00,56.1,42.8,29.73,SW,225,12.0,18.0,61,0.00,,,0.00,11,WeatherCatV1.21B27,2013-10-05 00:01:00,
2013-10-04 19:02:00,56.1,42.8,29.73,West,281,9.0,18.0,61,0.00,,,0.00,11,WeatherCatV1.21B27,2013-10-05 00:02:00,
2013-10-04 19:04:00,55.7,42.5,29.73,NW,309,16.0,23.0,61,0.00,,,0.00,9,WeatherCatV1.21B27,2013-10-05 00:04:00,
2013-10-04 19:06:00,55.3,42.1,29.73,SW,219,6.0,19.0,61,0.00,,,0.00,7,WeatherCatV1.21B27,2013-10-05 00:06:00,
2013-10-04 19:07:00,55.3,42.1,29.73,NW,314,4.0,19.0,61,0.00,,,0.00,7,WeatherCatV1.21B27,2013-10-05 00:07:00,
2013-10-04 19:09:00,54.9,41.7,29.73,West,266,10.0,20.0,61,0.00,,,0.00,7,WeatherCatV1.21B27,2013-10-05 00:09:00,
2013-10-04 19:12:00,54.5,41.3,29.74,WNW,285,10.0,20.0,61,0.00,,,0.00,5,WeatherCatV1.21B27,2013-10-05 00:12:00,
2013-10-04 19:13:00,54.4,41.2,29.74,West,271,12.0,20.0,61,0.00,,,0.00,5,WeatherCatV1.21B27,2013-10-05 00:13:00,
2013-10-04 19:14:00,54.2,41.0,29.74,WNW,291,16.0,20.0,61,0.00,,,0.00,5,WeatherCatV1.21B27,2013-10-05 00:14:00,
2013-10-04 19:17:00,53.9,41.2,29.74,WSW,250,7.0,18.0,62,0.00,,,0.00,0,WeatherCatV1.21B27,2013-10-05 00:17:00,
2013-10-04 19:18:00,53.8,41.1,29.74,WSW,244,3.0,13.0,62,0.00,,,0.00,0,WeatherCatV1.21B27,2013-10-05 00:18:00,
2013-10-04 19:19:00,53.7,41.0,29.74,West,263,14.0,14.0,62,0.00,,,0.00,0,WeatherCatV1.21B27,2013-10-05 00:19:00,
2013-10-04 19:22:00,53.4,41.1,29.75,West,280,9.0,11.0,63,0.00,,,0.00,0,WeatherCatV1.21B27,2013-10-05 00:22:00,
2013-10-04 19:23:00,53.4,41.1,29.75,WSW,253,8.0,15.0,63,0.00,,,0.00,0,WeatherCatV1.21B27,2013-10-05 00:23:00,
2013-10-04 19:24:00,53.3,41.4,29.75,WNW,290,5.0,15.0,64,0.00,,,0.00,0,WeatherCatV1.21B27,2013-10-05 00:24:00,
2013-10-04 19:27:00,53.1,41.7,29.75,West,274,18.0,18.0,65,0.00,,,0.00,0,WeatherCatV1.21B27,2013-10-05 00:27:00,
2013-10-04 19:28:00,53.0,41.5,29.75,West,260,6.0,18.0,65,0.00,,,0.00,0,WeatherCatV1.21B27,2013-10-05 00:28:00,
2013-10-04 19:29:00,53.0,41.5,29.76,North,355,7.0,11.0,65,0.00,,,0.00,0,WeatherCatV1.21B27,2013-10-05 00:29:00,
2013-10-04 19:30:00,52.9,41.1,29.76,West,279,6.0,16.0,64,0.00,,,0.00,0,WeatherCatV1.21B27,2013-10-05 00:30:00,
2013-10-04 19:32:00,52.6,41.2,29.76,West,279,5.0,9.0,65,0.00,,,0.00,0,WeatherCatV1.21B27,2013-10-05 00:32:00,
2013-10-04 19:34:00,52.5,40.7,29.76,West,277,10.0,13.0,64,0.00,,,0.00,0,WeatherCatV1.21B27,2013-10-05 00:34:00,
2013-10-04 19:35:00,52.3,40.5,29.76,WSW,258,3.0,14.0,64,0.00,,,0.00,0,WeatherCatV1.21B27,2013-10-05 00:35:00,
2013-10-04 19:38:00,51.9,39.7,29.76,WNW,286,14.0,19.0,63,0.00,,,0.00,0,WeatherCatV1.21B27,2013-10-05 00:38:00,
2013-10-04 19:39:00,51.8,39.6,29.77,West,281,7.0,19.0,63,0.00,,,0.00,0,WeatherCatV1.21B27,2013-10-05 00:39:00,
2013-10-04 19:40:00,51.7,39.5,29.77,WNW,300,10.0,13.0,63,0.00,,,0.00,0,WeatherCatV1.21B27,2013-10-05 00:40:00,
2013-10-04 19:43:00,51.3,39.1,29.77,West,259,12.0,15.0,63,0.00,,,0.00,0,WeatherCatV1.21B27,2013-10-05 00:43:00,
2013-10-04 19:44:00,51.3,39.1,29.78,West,277,5.0,16.0,63,0.00,,,0.00,0,WeatherCatV1.21B27,2013-10-05 00:44:00,
2013-10-04 19:45:00,51.2,39.5,29.78,West,276,9.0,16.0,64,0.00,,,0.00,0,WeatherCatV1.21B27,2013-10-05 00:45:00,
2013-10-04 19:48:00,50.9,39.2,29.78,West,281,4.0,14.0,64,0.00,,,0.00,0,WeatherCatV1.21B27,2013-10-05 00:48:00,
2013-10-04 19:49:00,50.8,39.5,29.78,WNW,296,8.0,16.0,65,0.00,,,0.00,0,WeatherCatV1.21B27,2013-10-05 00:49:00,
2013-10-04 19:50:00,50.8,39.5,29.78,West,274,8.0,16.0,65,0.00,,,0.00,0,WeatherCatV1.21B27,2013-10-05 00:50:00,
2013-10-04 19:51:00,50.8,39.5,29.78,West,279,1.0,16.0,65,0.00,,,0.00,0,WeatherCatV1.21B27,2013-10-05 00:51:00,
2013-10-04 19:53:00,50.5,39.2,29.78,WNW,287,5.0,16.0,65,0.00,,,0.00,0,WeatherCatV1.21B27,2013-10-05 00:53:00,
2013-10-04 19:54:00,50.5,39.6,29.78,WNW,294,12.0,14.0,66,0.00,,,0.00,0,WeatherCatV1.21B27,2013-10-05 00:54:00,
2013-10-04 19:55:00,50.4,39.1,29.78,WNW,296,2.0,14.0,65,0.00,,,0.00,0,WeatherCatV1.21B27,2013-10-05 00:55:00,
2013-10-04 19:56:00,50.4,39.1,29.79,West,259,6.0,14.0,65,0.00,,,0.00,0,WeatherCatV1.21B27,2013-10-05 00:56:00,
2013-10-04 19:58:00,50.1,38.8,29.79,WSW,257,9.0,21.0,65,0.00,,,0.00,0,WeatherCatV1.21B27,2013-10-05 00:58:00,
2013-10-04 20:00:00,50.0,38.3,29.79,WSW,248,3.0,21.0,64,0.00,,,0.00,0,WeatherCatV1.21B27,2013-10-05 01:00:00,
2013-10-04 20:01:00,49.9,38.2,29.79,WNW,285,14.0,16.0,64,0.00,,,0.00,0,WeatherCatV1.21B27,2013-10-05 01:01:00,
2013-10-04 20:04:00,49.6,37.9,29.79,SSW,200,12.0,23.0,64,0.00,,,0.00,0,WeatherCatV1.21B27,2013-10-05 01:04:00,
2013-10-04 20:05:00,49.6,37.5,29.79,West,277,5.0,16.0,63,0.00,,,0.00,0,WeatherCatV1.21B27,2013-10-05 01:05:00,
2013-10-04 20:06:00,49.4,37.7,29.79,West,281,7.0,16.0,64,0.00,,,0.00,0,WeatherCatV1.21B27,2013-10-05 01:06:00,
2013-10-04 20:07:00,49.4,37.7,29.79,SW,236,3.0,16.0,64,0.00,,,0.00,0,WeatherCatV1.21B27,2013-10-05 01:07:00,
2013-10-04 20:09:00,49.2,37.5,29.80,West,273,11.0,12.0,64,0.00,,,0.00,0,WeatherCatV1.21B27,2013-10-05 01:09:00,
2013-10-04 20:10:00,49.2,37.9,29.80,West,269,6.0,12.0,65,0.00,,,0.00,0,WeatherCatV1.21B27,2013-10-05 01:10:00,
2013-10-04 20:11:00,49.1,37.8,29.80,SSW,209,6.0,18.0,65,0.00,,,0.00,0,WeatherCatV1.21B27,2013-10-05 01:11:00,
2013-10-04 20:12:00,49.1,37.8,29.80,WSW,256,6.0,18.0,65,0.00,,,0.00,0,WeatherCatV1.21B27,2013-10-05 01:12:00,
2013-10-04 20:14:00,48.9,37.7,29.80,SW,232,3.0,20.0,65,0.00,,,0.00,0,WeatherCatV1.21B27,2013-10-05 01:14:00,
2013-10-04 20:15:00,48.9,38.0,29.81,WNW,283,4.0,9.0,66,0.00,,,0.00,0,WeatherCatV1.21B27,2013-10-05 01:15:00,
2013-10-04 20:16:00,48.8,38.0,29.81,West,267,5.0,8.0,66,0.00,,,0.00,0,WeatherCatV1.21B27,2013-10-05 01:16:00,
2013-10-04 20:17:00,48.8,38.0,29.80,West,267,3.0,7.0,66,0.00,,,0.00,0,WeatherCatV1.21B27,2013-10-05 01:17:00,
2013-10-04 20:20:00,48.5,37.7,29.81,WNW,300,4.0,10.0,66,0.00,,,0.00,0,WeatherCatV1.21B27,2013-10-05 01:20:00,
2013-10-04 20:22:00,48.4,37.6,29.81,SW,221,10.0,16.0,66,0.00,,,0.00,0,WeatherCatV1.21B27,2013-10-05 01:22:00,
2013-10-04 20:23:00,48.3,37.5,29.81,WNW,299,13.0,17.0,66,0.00,,,0.00,0,WeatherCatV1.21B27,2013-10-05 01:23:00,
2013-10-04 20:25:00,48.0,36.8,29.81,NW,315,8.0,20.0,65,0.00,,,0.00,0,WeatherCatV1.21B27,2013-10-05 01:25:00,
2013-10-04 20:26:00,48.0,36.8,29.81,WSW,258,21.0,22.0,65,0.00,,,0.00,0,WeatherCatV1.21B27,2013-10-05 01:26:00,
2013-10-04 20:27:00,47.8,36.2,29.81,West,279,14.0,22.0,64,0.00,,,0.00,0,WeatherCatV1.21B27,2013-10-05 01:27:00,
2013-10-04 20:28:00,47.8,36.2,29.81,WSW,248,11.0,22.0,64,0.00,,,0.00,0,WeatherCatV1.21B27,2013-10-05 01:28:00,
2013-10-04 20:30:00,47.4,35.8,29.81,NW,313,11.0,20.0,64,0.00,,,0.00,0,WeatherCatV1.21B27,2013-10-05 01:30:00,
2013-10-04 20:31:00,47.4,35.8,29.81,SW,221,4.0,15.0,64,0.00,,,0.00,0,WeatherCatV1.21B27,2013-10-05 01:31:00,
2013-10-04 20:32:00,47.3,35.8,29.81,West,273,11.0,17.0,64,0.00,,,0.00,0,WeatherCatV1.21B27,2013-10-05 01:32:00,
2013-10-04 20:33:00,47.2,35.7,29.81,North,0,9.0,17.0,64,0.00,,,0.00,0,WeatherCatV1.21B27,2013-10-05 01:33:00,
2013-10-04 20:36:00,47.0,35.5,29.81,WSW,257,16.0,19.0,64,0.00,,,0.00,0,WeatherCatV1.21B27,2013-10-05 01:36:00,
2013-10-04 20:37:00,46.9,35.4,29.82,WNW,285,14.0,14.0,64,0.00,,,0.00,0,WeatherCatV1.21B27,2013-10-05 01:37:00,
2013-10-04 20:38:00,46.8,35.3,29.82,West,266,10.0,14.0,64,0.00,,,0.00,0,WeatherCatV1.21B27,2013-10-05 01:38:00,
2013-10-04 20:41:00,46.7,35.6,29.82,WSW,257,14.0,14.0,65,0.00,,,0.00,0,WeatherCatV1.21B27,2013-10-05 01:41:00,
2013-10-04 20:42:00,46.5,35.4,29.82,West,260,7.0,14.0,65,0.00,,,0.00,0,WeatherCatV1.21B27,2013-10-05 01:42:00,
2013-10-04 20:43:00,46.5,35.4,29.82,WSW,252,4.0,14.0,65,0.00,,,0.00,0,WeatherCatV1.21B27,2013-10-05 01:43:00,
2013-10-04 20:44:00,46.5,35.4,29.82,WSW,258,5.0,14.0,65,0.00,,,0.00,0,WeatherCatV1.21B27,2013-10-05 01:44:00,
2013-10-04 20:46:00,46.4,35.3,29.82,NW,321,10.0,19.0,65,0.00,,,0.00,0,WeatherCatV1.21B27,2013-10-05 01:46:00,
2013-10-04 20:47:00,46.3,35.2,29.82,WNW,290,11.0,17.0,65,0.00,,,0.00,0,WeatherCatV1.21B27,2013-10-05 01:47:00,
2013-10-04 20:48:00,46.3,35.2,29.82,NNW,332,3.0,17.0,65,0.00,,,0.00,0,WeatherCatV1.21B27,2013-10-05 01:48:00,
2013-10-04 20:49:00,46.3,35.2,29.83,West,263,13.0,13.0,65,0.00,,,0.00,0,WeatherCatV1.21B27,2013-10-05 01:49:00,
2013-10-04 20:51:00,46.1,35.4,29.83,WNW,286,13.0,13.0,66,0.00,,,0.00,0,WeatherCatV1.21B27,2013-10-05 01:51:00,
2013-10-04 20:52:00,46.1,35.4,29.83,WNW,286,13.0,13.0,66,0.00,,,0.00,0,WeatherCatV1.21B27,2013-10-05 01:52:00,
2013-10-04 20:53:00,46.0,35.3,29.82,WSW,238,9.0,16.0,66,0.00,,,0.00,0,WeatherCatV1.21B27,2013-10-05 01:53:00,
2013-10-04 20:54:00,46.0,35.3,29.83,WSW,237,14.0,16.0,66,0.00,,,0.00,0,WeatherCatV1.21B27,2013-10-05 01:54:00,
2013-10-04 20:57:00,45.8,35.1,29.82,WSW,248,13.0,17.0,66,0.00,,,0.00,0,WeatherCatV1.21B27,2013-10-05 01:57:00,
2013-10-04 20:58:00,45.7,35.0,29.83,WSW,253,6.0,17.0,66,0.00,,,0.00,0,WeatherCatV1.21B27,2013-10-05 01:58:00,
2013-10-04 20:59:00,45.6,35.3,29.83,SW,221,11.0,13.0,67,0.00,,,0.00,0,WeatherCatV1.21B27,2013-10-05 01:59:00,
2013-10-04 21:02:00,45.5,35.2,29.83,West,273,4.0,14.0,67,0.00,,,0.00,0,WeatherCatV1.21B27,2013-10-05 02:02:00,
2013-10-04 21:03:00,45.4,35.1,29.83,WNW,286,1.0,14.0,67,0.00,,,0.00,0,WeatherCatV1.21B27,2013-10-05 02:03:00,
2013-10-04 21:05:00,45.3,35.0,29.83,WSW,246,7.0,17.0,67,0.00,,,0.00,0,WeatherCatV1.21B27,2013-10-05 02:05:00,
2013-10-04 21:07:00,45.1,34.8,29.83,WNW,302,6.0,11.0,67,0.00,,,0.00,0,WeatherCatV1.21B27,2013-10-05 02:07:00,
2013-10-04 21:08:00,45.1,34.8,29.83,WNW,290,7.0,11.0,67,0.00,,,0.00,0,WeatherCatV1.21B27,2013-10-05 02:08:00,
2013-10-04 21:09:00,45.1,34.8,29.83,WSW,258,6.0,10.0,67,0.00,,,0.00,0,WeatherCatV1.21B27,2013-10-05 02:09:00,
2013-10-04 21:10:00,45.0,34.7,29.83,WSW,249,1.0,12.0,67,0.00,,,0.00,0,WeatherCatV1.21B27,2013-10-05 02:10:00,
2013-10-04 21:12:00,44.9,34.6,29.84,WNW,292,13.0,17.0,67,0.00,,,0.00,0,WeatherCatV1.21B27,2013-10-05 02:12:00,
2013-10-04 21:13:00,44.9,34.6,29.84,WSW,257,5.0,17.0,67,0.00,,,0.00,0,WeatherCatV1.21B27,2013-10-05 02:13:00,
2013-10-04 21:14:00,44.8,34.5,29.84,SW,232,1.0,17.0,67,0.00,,,0.00,0,WeatherCatV1.21B27,2013-10-05 02:14:00,
2013-10-04 21:15:00,44.7,34.8,29.84,West,275,4.0,14.0,68,0.00,,,0.00,0,WeatherCatV1.21B27,2013-10-05 02:15:00,
2013-10-04 21:17:00,44.6,34.7,29.84,West,268,6.0,12.0,68,0.00,,,0.00,0,WeatherCatV1.21B27,2013-10-05 02:17:00,
2013-10-04 21:18:00,44.5,34.6,29.83,West,267,2.0,12.0,68,0.00,,,0.00,0,WeatherCatV1.21B27,2013-10-05 02:18:00,
2013-10-04 21:19:00,44.4,34.5,29.83,WSW,245,4.0,12.0,68,0.00,,,0.00,0,WeatherCatV1.21B27,2013-10-05 02:19:00,
2013-10-04 21:20:00,44.4,34.5,29.84,WNW,296,9.0,12.0,68,0.00,,,0.00,0,WeatherCatV1.21B27,2013-10-05 02:20:00,
2013-10-04 21:22:00,44.3,34.4,29.84,WNW,286,7.0,16.0,68,0.00,,,0.00,0,WeatherCatV1.21B27,2013-10-05 02:22:00,
2013-10-04 21:23:00,44.3,34.4,29.84,WNW,286,5.0,16.0,68,0.00,,,0.00,0,WeatherCatV1.21B27,2013-10-05 02:23:00,
2013-10-04 21:24:00,44.1,34.2,29.84,West,264,20.0,20.0,68,0.00,,,0.00,0,WeatherCatV1.21B27,2013-10-05 02:24:00,
2013-10-04 21:25:00,44.1,34.2,29.83,West,266,9.0,20.0,68,0.00,,,0.00,0,WeatherCatV1.21B27,2013-10-05 02:25:00,
2013-10-04 21:26:00,44.1,34.2,29.83,West,268,6.0,20.0,68,0.00,,,0.00,0,WeatherCatV1.21B27,2013-10-05 02:26:00,
2013-10-04 21:28:00,43.9,34.0,29.83,West,275,4.0,10.0,68,0.00,,,0.00,0,WeatherCatV1.21B27,2013-10-05 02:28:00,
2013-10-04 21:29:00,43.8,34.3,29.84,West,269,7.0,11.0,69,0.00,,,0.00,0,WeatherCatV1.21B27,2013-10-05 02:29:00,
2013-10-04 21:31:00,43.8,34.3,29.84,WNW,287,2.0,12.0,69,0.00,,,0.00,0,WeatherCatV1.21B27,2013-10-05 02:31:00,
2013-10-04 21:33:00,43.7,34.2,29.84,WSW,239,3.0,7.0,69,0.00,,,0.00,0,WeatherCatV1.21B27,2013-10-05 02:33:00,
2013-10-04 21:34:00,43.6,34.1,29.84,WNW,290,6.0,15.0,69,0.00,,,0.00,0,WeatherCatV1.21B27,2013-10-05 02:34:00,
2013-10-04 21:36:00,43.5,34.0,29.84,NW,306,6.0,15.0,69,0.00,,,0.00,0,WeatherCatV1.21B27,2013-10-05 02:36:00,
2013-10-04 21:38:00,43.4,33.9,29.84,West,271,5.0,13.0,69,0.00,,,0.00,0,WeatherCatV1.21B27,2013-10-05 02:38:00,
2013-10-04 21:40:00,43.3,34.2,29.84,WNW,300,3.0,12.0,70,0.00,,,0.00,0,WeatherCatV1.21B27,2013-10-05 02:40:00,
2013-10-04 21:41:00,43.3,34.2,29.84,WNW,288,7.0,10.0,70,0.00,,,0.00,0,WeatherCatV1.21B27,2013-10-05 02:41:00,
2013-10-04 21:43:00,43.2,34.1,29.84,West,264,11.0,11.0,70,0.00,,,0.00,0,WeatherCatV1.21B27,2013-10-05 02:43:00,
2013-10-04 21:45:00,43.1,34.0,29.85,WNW,287,5.0,14.0,70,0.00,,,0.00,0,WeatherCatV1.21B27,2013-10-05 02:45:00,
2013-10-04 21:46:00,43.1,34.3,29.84,West,268,3.0,5.0,71,0.00,,,0.00,0,WeatherCatV1.21B27,2013-10-05 02:46:00,
2013-10-04 21:48:00,43.0,34.2,29.84,WSW,244,3.0,9.0,71,0.00,,,0.00,0,WeatherCatV1.21B27,2013-10-05 02:48:00,
2013-10-04 21:50:00,42.9,34.2,29.84,WSW,253,5.0,14.0,71,0.00,,,0.00,0,WeatherCatV1.21B27,2013-10-05 02:50:00,
2013-10-04 21:51:00,42.9,34.2,29.84,WSW,249,4.0,14.0,71,0.00,,,0.00,0,WeatherCatV1.21B27,2013-10-05 02:51:00,
2013-10-04 21:52:00,42.9,34.2,29.84,SW,234,10.0,10.0,71,0.00,,,0.00,0,WeatherCatV1.21B27,2013-10-05 02:52:00,
2013-10-04 21:53:00,42.8,34.1,29.85,West,279,7.0,17.0,71,0.00,,,0.00,0,WeatherCatV1.21B27,2013-10-05 02:53:00,
2013-10-04 21:54:00,42.8,34.1,29.85,WNW,290,7.0,17.0,71,0.00,,,0.00,0,WeatherCatV1.21B27,2013-10-05 02:54:00,
2013-10-04 21:55:00,42.8,34.1,29.85,WNW,292,6.0,11.0,71,0.00,,,0.00,0,WeatherCatV1.21B27,2013-10-05 02:55:00,
2013-10-04 21:56:00,42.7,34.0,29.85,West,263,4.0,12.0,71,0.00,,,0.00,0,WeatherCatV1.21B27,2013-10-05 02:56:00,
2013-10-04 21:57:00,42.7,34.0,29.85,West,267,4.0,12.0,71,0.00,,,0.00,0,WeatherCatV1.21B27,2013-10-05 02:57:00,
2013-10-04 21:59:00,42.6,33.9,29.85,WSW,250,13.0,13.0,71,0.00,,,0.00,0,WeatherCatV1.21B27,2013-10-05 02:59:00,
2013-10-04 22:00:00,42.6,33.9,29.85,WSW,247,1.0,13.0,71,0.00,,,0.00,0,WeatherCatV1.21B27,2013-10-05 03:00:00,
2013-10-04 22:01:00,42.6,33.9,29.85,WSW,247,0.0,3.0,71,0.00,,,0.00,0,WeatherCatV1.21B27,2013-10-05 03:01:00,
2013-10-04 22:02:00,42.6,33.9,29.85,WNW,287,7.0,7.0,71,0.00,,,0.00,0,WeatherCatV1.21B27,2013-10-05 03:02:00,
2013-10-04 22:04:00,42.5,33.8,29.85,SW,234,3.0,11.0,71,0.00,,,0.00,0,WeatherCatV1.21B27,2013-10-05 03:04:00,
2013-10-04 22:06:00,42.5,33.4,29.85,WNW,298,7.0,17.0,70,0.00,,,0.00,0,WeatherCatV1.21B27,2013-10-05 03:06:00,
2013-10-04 22:07:00,42.4,33.3,29.85,WNW,288,5.0,17.0,70,0.00,,,0.00,0,WeatherCatV1.21B27,2013-10-05 03:07:00,
2013-10-04 22:08:00,42.4,33.3,29.85,WSW,252,11.0,12.0,70,0.00,,,0.00,0,WeatherCatV1.21B27,2013-10-05 03:08:00,
2013-10-04 22:09:00,42.4,33.3,29.85,WSW,245,1.0,11.0,70,0.00,,,0.00,0,WeatherCatV1.21B27,2013-10-05 03:09:00,
2013-10-04 22:11:00,42.4,33.3,29.85,WNW,296,10.0,13.0,70,0.00,,,0.00,0,WeatherCatV1.21B27,2013-10-05 03:11:00,
2013-10-04 22:13:00,42.3,33.2,29.85,WNW,284,6.0,13.0,70,0.00,,,0.00,0,WeatherCatV1.21B27,2013-10-05 03:13:00,
2013-10-04 22:14:00,42.3,33.2,29.85,West,281,2.0,15.0,70,0.00,,,0.00,0,WeatherCatV1.21B27,2013-10-05 03:14:00,
2013-10-04 22:15:00,42.3,33.2,29.85,WNW,291,7.0,15.0,70,0.00,,,0.00,0,WeatherCatV1.21B27,2013-10-05 03:15:00,
2013-10-04 22:16:00,42.3,33.2,29.85,West,268,12.0,13.0,70,0.00,,,0.00,0,WeatherCatV1.21B27,2013-10-05 03:16:00,
2013-10-04 22:17:00,42.2,33.1,29.85,West,272,5.0,13.0,70,0.00,,,0.00,0,WeatherCatV1.21B27,2013-10-05 03:17:00,
2013-10-04 22:18:00,42.2,33.1,29.85,WSW,249,5.0,14.0,70,0.00,,,0.00,0,WeatherCatV1.21B27,2013-10-05 03:18:00,
2013-10-04 22:19:00,42.2,33.1,29.85,West,278,6.0,12.0,70,0.00,,,0.00,0,WeatherCatV1.21B27,2013-10-05 03:19:00,
2013-10-04 22:21:00,42.2,32.8,29.85,NNW,333,7.0,18.0,69,0.00,,,0.00,0,WeatherCatV1.21B27,2013-10-05 03:21:00,
2013-10-04 22:22:00,42.2,32.8,29.85,WNW,298,17.0,18.0,69,0.00,,,0.00,0,WeatherCatV1.21B27,2013-10-05 03:22:00,
2013-10-04 22:23:00,42.2,32.8,29.85,WNW,294,6.0,18.0,69,0.00,,,0.00,0,WeatherCatV1.21B27,2013-10-05 03:23:00,
2013-10-04 22:24:00,42.2,32.8,29.85,WNW,292,9.0,18.0,69,0.00,,,0.00,0,WeatherCatV1.21B27,2013-10-05 03:24:00,
2013-10-04 22:26:00,42.2,32.4,29.85,West,262,5.0,19.0,68,0.00,,,0.00,0,WeatherCatV1.21B27,2013-10-05 03:26:00,
2013-10-04 22:27:00,42.2,32.4,29.85,West,266,5.0,11.0,68,0.00,,,0.00,0,WeatherCatV1.21B27,2013-10-05 03:27:00,
2013-10-04 22:28:00,42.2,32.4,29.85,WNW,284,7.0,10.0,68,0.00,,,0.00,0,WeatherCatV1.21B27,2013-10-05 03:28:00,
2013-10-04 22:29:00,42.2,32.4,29.86,West,269,2.0,9.0,68,0.00,,,0.00,0,WeatherCatV1.21B27,2013-10-05 03:29:00,
2013-10-04 22:32:00,42.1,32.3,29.85,WNW,290,11.0,15.0,68,0.00,,,0.00,0,WeatherCatV1.21B27,2013-10-05 03:32:00,
2013-10-04 22:34:00,42.1,32.3,29.85,WNW,287,3.0,5.0,68,0.00,,,0.00,0,WeatherCatV1.21B27,2013-10-05 03:34:00,
2013-10-04 22:35:00,42.1,32.3,29.85,WNW,291,2.0,5.0,68,0.00,,,0.00,0,WeatherCatV1.21B27,2013-10-05 03:35:00,
2013-10-04 22:37:00,42.1,32.3,29.86,West,279,2.0,10.0,68,0.00,,,0.00,0,WeatherCatV1.21B27,2013-10-05 03:37:00,
2013-10-04 22:39:00,42.1,32.3,29.86,West,265,3.0,9.0,68,0.00,,,0.00,0,WeatherCatV1.21B27,2013-10-05 03:39:00,
2013-10-04 22:40:00,42.1,32.3,29.86,West,265,1.0,9.0,68,0.00,,,0.00,0,WeatherCatV1.21B27,2013-10-05 03:40:00,
2013-10-04 22:42:00,42.1,32.3,29.86,West,273,6.0,6.0,68,0.00,,,0.00,0,WeatherCatV1.21B27,2013-10-05 03:42:00,
2013-10-04 22:45:00,42.0,32.2,29.86,NW,304,4.0,12.0,68,0.00,,,0.00,0,WeatherCatV1.21B27,2013-10-05 03:45:00,
2013-10-04 22:47:00,42.0,32.2,29.86,SW,221,7.0,13.0,68,0.00,,,0.00,0,WeatherCatV1.21B27,2013-10-05 03:47:00,
2013-10-04 22:48:00,42.0,32.2,29.86,SW,219,7.0,13.0,68,0.00,,,0.00,0,WeatherCatV1.21B27,2013-10-05 03:48:00,
2013-10-04 22:50:00,42.0,32.2,29.87,NW,320,15.0,15.0,68,0.00,,,0.00,0,WeatherCatV1.21B27,2013-10-05 03:50:00,
2013-10-04 22:51:00,42.0,32.2,29.87,NW,320,15.0,15.0,68,0.00,,,0.00,0,WeatherCatV1.21B27,2013-10-05 03:51:00,
2013-10-04 22:52:00,42.0,32.2,29.87,WSW,240,10.0,15.0,68,0.00,,,0.00,0,WeatherCatV1.21B27,2013-10-05 03:52:00,
2013-10-04 22:53:00,42.0,32.2,29.86,SW,236,6.0,12.0,68,0.00,,,0.00,0,WeatherCatV1.21B27,2013-10-05 03:53:00,
2013-10-04 22:56:00,41.9,32.1,29.86,WNW,295,5.0,12.0,68,0.00,,,0.00,0,WeatherCatV1.21B27,2013-10-05 03:56:00,
2013-10-04 22:58:00,41.9,32.1,29.86,WNW,293,4.0,14.0,68,0.00,,,0.00,0,WeatherCatV1.21B27,2013-10-05 03:58:00,
2013-10-04 22:59:00,41.9,32.1,29.86,West,264,3.0,7.0,68,0.00,,,0.00,0,WeatherCatV1.21B27,2013-10-05 03:59:00,
2013-10-04 23:01:00,41.9,32.1,29.86,SW,236,6.0,15.0,68,0.00,,,0.00,0,WeatherCatV1.21B27,2013-10-05 04:01:00,
2013-10-04 23:06:00,41.8,32.0,29.87,WNW,298,7.0,13.0,68,0.00,,,0.00,0,WeatherCatV1.21B27,2013-10-05 04:06:00,
2013-10-04 23:11:00,41.6,31.8,29.86,WSW,248,4.0,11.0,68,0.00,,,0.00,0,WeatherCatV1.21B27,2013-10-05 04:11:00,
2013-10-04 23:16:00,41.7,31.9,29.86,WNW,286,10.0,11.0,68,0.00,,,0.00,0,WeatherCatV1.21B27,2013-10-05 04:16:00,
2013-10-04 23:17:00,41.7,31.9,29.86,WSW,245,3.0,20.0,68,0.00,,,0.00,0,WeatherCatV1.21B27,2013-10-05 04:17:00,
2013-10-04 23:21:00,41.8,31.7,29.87,WNW,299,9.0,14.0,67,0.00,,,0.00,0,WeatherCatV1.21B27,2013-10-05 04:21:00,
2013-10-04 23:22:00,41.8,31.7,29.87,WNW,290,5.0,13.0,67,0.00,,,0.00,0,WeatherCatV1.21B27,2013-10-05 04:22:00,
2013-10-04 23:26:00,41.8,31.7,29.86,WNW,288,3.0,15.0,67,0.00,,,0.00,0,WeatherCatV1.21B27,2013-10-05 04:26:00,
2013-10-04 23:27:00,41.8,31.7,29.86,WNW,288,0.0,15.0,67,0.00,,,0.00,0,WeatherCatV1.21B27,2013-10-05 04:27:00,
2013-10-04 23:31:00,41.7,31.6,29.86,WNW,284,6.0,13.0,67,0.00,,,0.00,0,WeatherCatV1.21B27,2013-10-05 04:31:00,
2013-10-04 23:32:00,41.7,31.6,29.86,WSW,249,9.0,13.0,67,0.00,,,0.00,0,WeatherCatV1.21B27,2013-10-05 04:32:00,
2013-10-04 23:37:00,41.6,31.8,29.88,WSW,243,5.0,14.0,68,0.00,,,0.00,0,WeatherCatV1.21B27,2013-10-05 04:37:00,
2013-10-04 23:42:00,41.6,31.8,29.87,WSW,254,5.0,14.0,68,0.00,,,0.00,0,WeatherCatV1.21B27,2013-10-05 04:42:00,
2013-10-04 23:47:00,41.5,31.7,29.88,WNW,285,1.0,12.0,68,0.00,,,0.00,0,WeatherCatV1.21B27,2013-10-05 04:47:00,
2013-10-04 23:48:00,41.5,31.7,29.88,WNW,302,3.0,12.0,68,0.00,,,0.00,0,WeatherCatV1.21B27,2013-10-05 04:48:00,
2013-10-04 23:52:00,41.5,31.7,29.87,WNW,286,6.0,12.0,68,0.00,,,0.00,0,WeatherCatV1.21B27,2013-10-05 04:52:00,
2013-10-04 23:53:00,41.5,31.7,29.87,West,263,3.0,12.0,68,0.00,,,0.00,0,WeatherCatV1.21B27,2013-10-05 04:53:00,
2013-10-04 23:57:00,41.3,31.5,29.87,West,273,6.0,13.0,68,0.00,,,0.00,0,WeatherCatV1.21B27,2013-10-05 04:57:00,
2013-10-04 23:58:00,41.3,31.5,29.87,WNW,294,6.0,11.0,68,0.00,,,0.00,0,WeatherCatV1.21B27,2013-10-05 04:58:00,
2013-10-04 23:59:00,41.3,31.9,29.87,WNW,284,5.0,19.0,69,0.00,,,0.00,0,WeatherCatV1.21B27,2013-10-05 04:59:00,